BAW272 KSAN-EGLL

Flight info

Callsign BAW272
Flight time 10h 11m
Altitude 35000
Route ZZOOO4 MTBAL DCT EED J236 TBC DCT KD42Q DCT KD57U DCT KD75A/N0477F370 DCT KP87G DCT KP12M DCT BESEL DCT 4930N08000W 5230N07000W DCT HOIST/M084F400 DCT 57N050W 58N040W 58N030W 57N020W DCT PIKIL DCT SOVED/N0484F410 DCT NIBOG DCT ERNAN DCT BOFUM Q37 MALUD Q38 NUGRA
Aircraft B772/H-SDE2E3FGHIJ5LORVWXY/LB1D1

Departure

Time 2026-04-20 05:25
Airport San Diego International Airport (KSAN)

Arrival

Time 2026-04-20 15:37
Airport London Heathrow Airport (EGLL)
Time Latitude Longitude Altitude Speed Heading
2026-04-20 04:53 32.73263 -117.20713 36 ft 0 kts 192°
2026-04-20 05:06 32.73268 -117.20712 27 ft 3 kts 193°
2026-04-20 05:06 32.73294 -117.20704 26 ft 4 kts 195°
2026-04-20 05:07 32.73320 -117.20695 26 ft 4 kts 198°
2026-04-20 05:07 32.73345 -117.20685 25 ft 4 kts 200°
2026-04-20 05:07 32.73371 -117.20674 26 ft 4 kts 202°
2026-04-20 05:07 32.73396 -117.20661 26 ft 4 kts 202°
2026-04-20 05:08 32.73421 -117.20650 26 ft 4 kts 192°
2026-04-20 05:08 32.73432 -117.20648 25 ft 0 kts 181°
2026-04-20 05:12 32.73417 -117.20612 27 ft 9 kts 80°
2026-04-20 05:12 32.73474 -117.20557 27 ft 11 kts 37°
2026-04-20 05:13 32.73527 -117.20492 27 ft 11 kts 49°
2026-04-20 05:13 32.73579 -117.20418 27 ft 12 kts 55°
2026-04-20 05:13 32.73581 -117.20323 27 ft 12 kts 105°
2026-04-20 05:13 32.73558 -117.20226 27 ft 12 kts 105°
2026-04-20 05:14 32.73535 -117.20130 27 ft 13 kts 105°
2026-04-20 05:14 32.73510 -117.20030 27 ft 13 kts 106°
2026-04-20 05:14 32.73486 -117.19930 27 ft 13 kts 106°
2026-04-20 05:14 32.73462 -117.19830 27 ft 13 kts 106°
2026-04-20 05:15 32.73438 -117.19729 27 ft 13 kts 106°
2026-04-20 05:15 32.73413 -117.19629 27 ft 13 kts 106°
2026-04-20 05:15 32.73389 -117.19529 27 ft 13 kts 106°
2026-04-20 05:15 32.73365 -117.19430 27 ft 13 kts 105°
2026-04-20 05:16 32.73340 -117.19325 27 ft 13 kts 106°
2026-04-20 05:16 32.73314 -117.19220 27 ft 13 kts 106°
2026-04-20 05:16 32.73287 -117.19108 27 ft 16 kts 106°
2026-04-20 05:16 32.73255 -117.18975 27 ft 17 kts 106°
2026-04-20 05:17 32.73222 -117.18839 27 ft 17 kts 106°
2026-04-20 05:17 32.73189 -117.18703 30 ft 17 kts 106°
2026-04-20 05:17 32.73156 -117.18567 30 ft 17 kts 106°
2026-04-20 05:17 32.73123 -117.18431 30 ft 17 kts 106°
2026-04-20 05:18 32.73090 -117.18295 29 ft 17 kts 106°
2026-04-20 05:18 32.73057 -117.18159 30 ft 17 kts 106°
2026-04-20 05:18 32.73024 -117.18023 33 ft 17 kts 106°
2026-04-20 05:18 32.72991 -117.17887 29 ft 17 kts 106°
2026-04-20 05:19 32.72958 -117.17762 29 ft 13 kts 111°
2026-04-20 05:19 32.72947 -117.17718 30 ft 4 kts 95°
2026-04-20 05:19 32.72953 -117.17687 30 ft 4 kts 73°
2026-04-20 05:19 32.72953 -117.17685 30 ft 0 kts 73°
2026-04-20 05:23 32.72954 -117.17684 30 ft 2 kts 73°
2026-04-20 05:23 32.72976 -117.17625 29 ft 10 kts 50°
2026-04-20 05:24 32.73028 -117.17621 29 ft 8 kts 317°
2026-04-20 05:24 32.73033 -117.17632 29 ft 0 kts 292°
2026-04-20 05:24 32.73035 -117.17642 29 ft 6 kts 286°
2026-04-20 05:24 32.73093 -117.17880 30 ft 68 kts 286°
2026-04-20 05:25 32.73301 -117.18745 27 ft 147 kts 285°
2026-04-20 05:25 32.73615 -117.20046 552 ft 167 kts 285°
2026-04-20 05:25 32.73908 -117.21392 1462 ft 173 kts 282°
2026-04-20 05:25 32.74158 -117.22842 1911 ft 184 kts 280°
2026-04-20 05:26 32.74412 -117.24326 2340 ft 186 kts 282°
2026-04-20 05:26 32.74818 -117.25845 2559 ft 200 kts 290°
2026-04-20 05:26 32.75310 -117.27479 2721 ft 220 kts 287°
2026-04-20 05:26 32.75801 -117.29321 2780 ft 245 kts 286°
2026-04-20 05:27 32.76291 -117.31274 3362 ft 247 kts 286°
2026-04-20 05:27 32.76555 -117.33262 3829 ft 245 kts 259°
2026-04-20 05:27 32.75837 -117.35058 4302 ft 243 kts 222°
2026-04-20 05:27 32.74418 -117.36077 4938 ft 239 kts 194°
2026-04-20 05:28 32.72778 -117.36185 5539 ft 238 kts 168°
2026-04-20 05:28 32.71250 -117.35451 6132 ft 240 kts 144°
2026-04-20 05:28 32.70078 -117.34044 6627 ft 242 kts 133°
2026-04-20 05:28 32.68968 -117.32501 7060 ft 248 kts 133°
2026-04-20 05:29 32.67838 -117.30948 7595 ft 249 kts 133°
2026-04-20 05:29 32.66706 -117.29406 8102 ft 252 kts 133°
2026-04-20 05:29 32.65547 -117.27836 8632 ft 254 kts 133°
2026-04-20 05:29 32.64374 -117.26251 9135 ft 257 kts 133°
2026-04-20 05:30 32.63293 -117.24554 9551 ft 261 kts 115°
2026-04-20 05:30 32.62893 -117.22396 9692 ft 277 kts 96°
2026-04-20 05:30 32.62730 -117.20069 10002 ft 288 kts 98°
2026-04-20 05:30 32.62515 -117.17644 10255 ft 305 kts 98°
2026-04-20 05:31 32.62278 -117.15063 10411 ft 325 kts 98°
2026-04-20 05:31 32.62026 -117.12315 10564 ft 345 kts 97°
2026-04-20 05:31 32.62099 -117.09422 10646 ft 364 kts 77°
2026-04-20 05:31 32.63027 -117.06573 10801 ft 378 kts 67°
2026-04-20 05:32 32.64078 -117.03683 11311 ft 386 kts 70°
2026-04-20 05:32 32.65067 -117.00706 12036 ft 389 kts 70°
2026-04-20 05:32 32.66041 -116.97701 12817 ft 391 kts 71°
2026-04-20 05:32 32.66812 -116.94642 13334 ft 389 kts 85°
2026-04-20 05:33 32.66860 -116.91435 13798 ft 393 kts 94°
2026-04-20 05:33 32.66813 -116.88163 14383 ft 399 kts 91°
2026-04-20 05:33 32.66870 -116.84862 15130 ft 401 kts 90°
2026-04-20 05:33 32.66959 -116.81588 15839 ft 401 kts 88°
2026-04-20 05:34 32.67497 -116.78284 16200 ft 412 kts 68°
2026-04-20 05:34 32.69035 -116.75427 16765 ft 422 kts 48°
2026-04-20 05:34 32.74004 -116.71741 18119 ft 427 kts 22°
2026-04-20 05:35 32.76796 -116.70425 18620 ft 435 kts 21°
2026-04-20 05:35 32.79634 -116.69106 19235 ft 438 kts 21°
2026-04-20 05:35 32.82432 -116.67791 19938 ft 439 kts 21°
2026-04-20 05:35 32.85273 -116.66432 20612 ft 441 kts 21°
2026-04-20 05:36 32.88128 -116.65046 21228 ft 444 kts 21°
2026-04-20 05:36 32.90990 -116.63644 21828 ft 447 kts 21°
2026-04-20 05:36 32.93886 -116.62218 22406 ft 450 kts 21°
2026-04-20 05:36 32.96794 -116.60790 22964 ft 453 kts 21°
2026-04-20 05:37 32.99726 -116.59347 23521 ft 456 kts 21°
2026-04-20 05:37 33.02660 -116.57888 23980 ft 459 kts 21°
2026-04-20 05:37 33.05601 -116.56368 24434 ft 461 kts 22°
2026-04-20 05:37 33.08540 -116.54821 24898 ft 462 kts 22°
2026-04-20 05:38 33.11485 -116.53262 25374 ft 464 kts 22°
2026-04-20 05:38 33.14437 -116.51707 25787 ft 466 kts 22°
2026-04-20 05:38 33.17375 -116.50165 26155 ft 468 kts 21°
2026-04-20 05:38 33.20360 -116.48599 26546 ft 470 kts 21°
2026-04-20 05:39 33.23352 -116.47030 26932 ft 471 kts 21°
2026-04-20 05:39 33.26366 -116.45449 27306 ft 473 kts 21°
2026-04-20 05:39 33.29378 -116.43867 27648 ft 475 kts 21°
2026-04-20 05:39 33.32406 -116.42275 27985 ft 476 kts 21°
2026-04-20 05:40 33.35450 -116.40675 28298 ft 478 kts 21°
2026-04-20 05:40 33.38458 -116.39008 28541 ft 479 kts 26°
2026-04-20 05:40 33.41143 -116.36571 28566 ft 492 kts 45°
2026-04-20 05:40 33.43161 -116.33264 28721 ft 494 kts 54°
2026-04-20 05:41 33.45059 -116.29817 28877 ft 497 kts 53°
2026-04-20 05:41 33.47039 -116.26407 29101 ft 498 kts 52°
2026-04-20 05:41 33.49054 -116.23027 29407 ft 498 kts 51°
2026-04-20 05:41 33.51079 -116.19659 29682 ft 498 kts 51°
2026-04-20 05:42 33.53104 -116.16289 29937 ft 499 kts 51°
2026-04-20 05:42 33.55128 -116.12899 30167 ft 499 kts 51°
2026-04-20 05:42 33.57145 -116.09511 30413 ft 499 kts 51°
2026-04-20 05:42 33.59159 -116.06123 30663 ft 499 kts 51°
2026-04-20 05:43 33.61178 -116.02806 30889 ft 497 kts 49°
2026-04-20 05:43 33.63396 -115.99635 31129 ft 495 kts 45°
2026-04-20 05:43 33.65725 -115.96595 31367 ft 494 kts 44°
2026-04-20 05:43 33.68093 -115.93603 31573 ft 494 kts 44°
2026-04-20 05:44 33.70469 -115.90601 31730 ft 496 kts 44°
2026-04-20 05:44 33.72829 -115.87584 31918 ft 496 kts 44°
2026-04-20 05:44 33.75181 -115.84530 32166 ft 496 kts 45°
2026-04-20 05:44 33.77502 -115.81477 32411 ft 495 kts 45°
2026-04-20 05:45 33.79819 -115.78404 32644 ft 495 kts 45°
2026-04-20 05:45 33.82127 -115.75331 32858 ft 495 kts 45°
2026-04-20 05:45 33.84432 -115.72257 33084 ft 495 kts 45°
2026-04-20 05:45 33.86736 -115.69183 33309 ft 494 kts 45°
2026-04-20 05:46 33.89042 -115.66105 33538 ft 494 kts 45°
2026-04-20 05:46 33.91344 -115.63034 33757 ft 494 kts 45°
2026-04-20 05:46 33.93655 -115.59952 33922 ft 495 kts 45°
2026-04-20 05:46 33.95963 -115.56869 34064 ft 496 kts 46°
2026-04-20 05:47 33.98248 -115.53814 34229 ft 496 kts 46°
2026-04-20 05:47 34.00558 -115.50722 34364 ft 497 kts 46°
2026-04-20 05:47 34.02872 -115.47622 34514 ft 498 kts 46°
2026-04-20 05:47 34.05194 -115.44508 34667 ft 498 kts 46°
2026-04-20 05:48 34.09845 -115.38266 34802 ft 501 kts 46°
2026-04-20 05:48 34.13719 -115.33057 34856 ft 501 kts 46°
2026-04-20 05:49 34.18374 -115.26797 34856 ft 501 kts 46°
2026-04-20 05:49 34.23030 -115.20510 34850 ft 502 kts 46°
2026-04-20 05:50 34.27686 -115.14212 34848 ft 502 kts 46°
2026-04-20 05:50 34.32314 -115.07936 34849 ft 502 kts 47°
2026-04-20 05:51 34.36974 -115.01625 34847 ft 503 kts 47°
2026-04-20 05:51 34.41638 -114.95295 34839 ft 504 kts 47°
2026-04-20 05:52 34.46305 -114.88938 34843 ft 505 kts 47°
2026-04-20 05:52 34.50982 -114.82556 34853 ft 506 kts 47°
2026-04-20 05:53 34.55658 -114.76165 34863 ft 507 kts 47°
2026-04-20 05:53 34.60341 -114.69755 34878 ft 507 kts 47°
2026-04-20 05:54 34.65016 -114.63342 34894 ft 507 kts 47°
2026-04-20 05:54 34.69694 -114.56914 34896 ft 507 kts 48°
2026-04-20 05:55 34.74331 -114.50526 34896 ft 507 kts 49°
2026-04-20 05:55 34.78436 -114.43545 34873 ft 507 kts 61°
2026-04-20 05:56 34.81744 -114.35969 34851 ft 507 kts 62°
2026-04-20 05:56 34.85030 -114.28382 34844 ft 507 kts 62°
2026-04-20 05:57 34.88348 -114.20801 34829 ft 507 kts 62°
2026-04-20 05:57 34.91675 -114.13229 34857 ft 506 kts 62°
2026-04-20 05:58 34.94977 -114.05705 34856 ft 506 kts 63°
2026-04-20 05:58 34.98289 -113.98144 34874 ft 504 kts 63°
2026-04-20 05:59 35.01583 -113.90590 34870 ft 503 kts 63°
2026-04-20 05:59 35.04866 -113.83049 34884 ft 502 kts 63°
2026-04-20 06:00 35.08141 -113.75521 34889 ft 502 kts 63°
2026-04-20 06:00 35.11408 -113.67981 34900 ft 501 kts 64°
2026-04-20 06:01 35.14662 -113.60463 34913 ft 500 kts 64°
2026-04-20 06:01 35.17905 -113.52955 34924 ft 499 kts 64°
2026-04-20 06:02 35.21140 -113.45440 34919 ft 499 kts 64°
2026-04-20 06:02 35.24353 -113.37962 34917 ft 500 kts 64°
2026-04-20 06:03 35.27583 -113.30429 34928 ft 500 kts 64°
2026-04-20 06:03 35.30834 -113.22831 34950 ft 501 kts 64°
2026-04-20 06:04 35.34040 -113.15321 34943 ft 501 kts 64°
2026-04-20 06:04 35.37264 -113.07752 34944 ft 501 kts 64°
2026-04-20 06:05 35.40487 -113.00168 34960 ft 502 kts 64°
2026-04-20 06:05 35.43710 -112.92567 34973 ft 503 kts 64°
2026-04-20 06:06 35.46933 -112.84950 34977 ft 503 kts 64°
2026-04-20 06:06 35.50152 -112.77322 34967 ft 504 kts 64°
2026-04-20 06:07 35.53372 -112.69677 34999 ft 504 kts 64°
2026-04-20 06:07 35.56588 -112.62022 34990 ft 504 kts 64°
2026-04-20 06:08 35.59798 -112.54365 35000 ft 504 kts 64°
2026-04-20 06:08 35.62999 -112.46710 35002 ft 503 kts 64°
2026-04-20 06:09 35.66196 -112.39049 35014 ft 503 kts 64°
2026-04-20 06:09 35.69382 -112.31390 35020 ft 503 kts 64°
2026-04-20 06:10 35.72549 -112.23775 35023 ft 503 kts 64°
2026-04-20 06:10 35.75725 -112.16110 35036 ft 503 kts 64°
2026-04-20 06:11 35.78896 -112.08428 35037 ft 503 kts 64°
2026-04-20 06:11 35.82066 -112.00745 35031 ft 503 kts 64°
2026-04-20 06:12 35.85231 -111.93053 35013 ft 503 kts 64°
2026-04-20 06:12 35.86795 -111.89244 35119 ft 503 kts 64°
2026-04-20 06:12 35.88373 -111.85397 35099 ft 503 kts 64°
2026-04-20 06:13 35.91527 -111.77697 35031 ft 503 kts 64°
2026-04-20 06:13 35.94679 -111.69980 34993 ft 503 kts 64°
2026-04-20 06:14 35.97831 -111.62245 35004 ft 504 kts 64°
2026-04-20 06:14 36.00983 -111.54495 34996 ft 505 kts 64°
2026-04-20 06:15 36.04135 -111.46725 34980 ft 506 kts 65°
2026-04-20 06:15 36.07265 -111.38988 34977 ft 506 kts 65°
2026-04-20 06:16 36.10438 -111.31147 34973 ft 506 kts 63°
2026-04-20 06:16 36.14207 -111.23857 34975 ft 508 kts 52°
2026-04-20 06:17 36.18847 -111.17263 34985 ft 507 kts 49°
2026-04-20 06:17 36.23536 -111.10711 34960 ft 507 kts 49°
2026-04-20 06:18 36.28184 -111.04131 34976 ft 507 kts 50°
2026-04-20 06:18 36.32807 -110.97527 34971 ft 508 kts 50°
2026-04-20 06:19 36.37406 -110.90935 34976 ft 509 kts 50°
2026-04-20 06:19 36.42044 -110.84279 34967 ft 510 kts 50°
2026-04-20 06:20 36.46679 -110.77618 34964 ft 510 kts 50°
2026-04-20 06:20 36.51321 -110.70933 34971 ft 511 kts 50°
2026-04-20 06:21 36.55959 -110.64240 34986 ft 511 kts 50°
2026-04-20 06:21 36.60604 -110.57523 34992 ft 511 kts 50°
2026-04-20 06:22 36.65236 -110.50812 34992 ft 511 kts 50°
2026-04-20 06:22 36.69877 -110.44074 34997 ft 511 kts 50°
2026-04-20 06:23 36.74502 -110.37347 35002 ft 511 kts 50°
2026-04-20 06:23 36.79101 -110.30643 35014 ft 511 kts 50°
2026-04-20 06:24 36.83723 -110.23890 35015 ft 512 kts 50°
2026-04-20 06:24 36.88344 -110.17128 35016 ft 512 kts 50°
2026-04-20 06:25 36.92963 -110.10351 35026 ft 512 kts 50°
2026-04-20 06:25 36.97591 -110.03550 35024 ft 512 kts 50°
2026-04-20 06:26 37.02202 -109.96734 35022 ft 513 kts 50°
2026-04-20 06:26 37.06760 -109.89856 35040 ft 513 kts 51°
2026-04-20 06:27 37.11296 -109.82968 35044 ft 513 kts 51°
2026-04-20 06:27 37.15835 -109.76074 35049 ft 513 kts 51°
2026-04-20 06:28 37.20345 -109.69224 35055 ft 512 kts 51°
2026-04-20 06:28 37.24874 -109.62333 35068 ft 511 kts 50°
2026-04-20 06:29 37.29401 -109.55433 35099 ft 511 kts 50°
2026-04-20 06:29 37.33923 -109.48525 35126 ft 511 kts 50°
2026-04-20 06:30 37.38439 -109.41604 35140 ft 511 kts 50°
2026-04-20 06:30 37.42945 -109.34691 35152 ft 511 kts 50°
2026-04-20 06:31 37.47424 -109.27805 35149 ft 511 kts 50°
2026-04-20 06:31 37.51930 -109.20862 35140 ft 511 kts 50°
2026-04-20 06:32 37.56430 -109.13913 35119 ft 511 kts 50°
2026-04-20 06:32 37.60922 -109.06962 35088 ft 509 kts 50°
2026-04-20 06:33 37.65356 -109.00086 35085 ft 507 kts 50°
2026-04-20 06:33 37.69799 -108.93181 35095 ft 506 kts 50°
2026-04-20 06:34 37.74241 -108.86264 35096 ft 506 kts 50°
2026-04-20 06:35 37.80140 -108.77056 35104 ft 507 kts 50°
2026-04-20 06:35 37.85294 -108.68990 35117 ft 507 kts 51°
2026-04-20 06:36 37.88996 -108.63182 35109 ft 506 kts 51°
2026-04-20 06:36 37.93387 -108.56282 35126 ft 506 kts 51°
2026-04-20 06:37 37.97794 -108.49341 35122 ft 506 kts 51°
2026-04-20 06:37 38.02207 -108.42377 35137 ft 505 kts 51°
2026-04-20 06:38 38.06601 -108.35427 35132 ft 504 kts 51°
2026-04-20 06:38 38.10983 -108.28481 35134 ft 504 kts 51°
2026-04-20 06:39 38.15356 -108.21535 35144 ft 503 kts 51°
2026-04-20 06:39 38.19733 -108.14567 35140 ft 503 kts 51°
2026-04-20 06:40 38.24095 -108.07610 35167 ft 503 kts 51°
2026-04-20 06:40 38.28451 -108.00645 35184 ft 503 kts 51°
2026-04-20 06:41 38.32778 -107.93715 35207 ft 503 kts 51°
2026-04-20 06:41 38.37125 -107.86735 35223 ft 503 kts 51°
2026-04-20 06:42 38.41471 -107.79742 35146 ft 503 kts 51°
2026-04-20 06:42 38.45820 -107.72730 35169 ft 504 kts 51°
2026-04-20 06:43 38.50142 -107.65745 35148 ft 504 kts 51°
2026-04-20 06:43 38.54485 -107.58711 35155 ft 503 kts 51°
2026-04-20 06:44 38.58817 -107.51682 35169 ft 503 kts 51°
2026-04-20 06:44 38.63138 -107.44653 35161 ft 503 kts 51°
2026-04-20 06:45 38.67466 -107.37598 35156 ft 503 kts 51°
2026-04-20 06:45 38.71783 -107.30545 35172 ft 502 kts 51°
2026-04-20 06:46 38.76087 -107.23496 35173 ft 502 kts 51°
2026-04-20 06:46 38.80388 -107.16448 35159 ft 501 kts 51°
2026-04-20 06:47 38.84673 -107.09399 35171 ft 501 kts 51°
2026-04-20 06:47 38.88919 -107.02396 35162 ft 500 kts 51°
2026-04-20 06:48 38.93190 -106.95342 35173 ft 500 kts 51°
2026-04-20 06:48 38.97458 -106.88281 35167 ft 500 kts 51°
2026-04-20 06:49 39.01720 -106.81213 35240 ft 500 kts 51°
2026-04-20 06:49 39.05973 -106.74140 35267 ft 500 kts 51°
2026-04-20 06:50 39.10201 -106.67091 35231 ft 500 kts 51°
2026-04-20 06:50 39.14453 -106.59991 35231 ft 501 kts 51°
2026-04-20 06:51 39.18706 -106.52877 35331 ft 501 kts 51°
2026-04-20 06:51 39.22963 -106.45736 35375 ft 501 kts 51°
2026-04-20 06:52 39.27186 -106.38636 35390 ft 501 kts 51°
2026-04-20 06:52 39.31424 -106.31492 35395 ft 501 kts 51°
2026-04-20 06:53 39.35660 -106.24347 35337 ft 500 kts 50°
2026-04-20 06:53 39.37777 -106.20765 35162 ft 499 kts 50°
2026-04-20 06:53 39.39885 -106.17193 35152 ft 498 kts 50°
2026-04-20 06:54 39.44083 -106.10068 35141 ft 498 kts 50°
2026-04-20 06:54 39.48250 -106.02985 35155 ft 497 kts 50°
2026-04-20 06:55 39.52394 -105.95802 35140 ft 498 kts 52°
2026-04-20 06:55 39.56394 -105.88484 35126 ft 498 kts 52°
2026-04-20 06:56 39.60379 -105.81120 35141 ft 498 kts 52°
2026-04-20 06:56 39.64371 -105.73763 35139 ft 498 kts 52°
2026-04-20 06:57 39.68370 -105.66409 35101 ft 498 kts 52°
2026-04-20 06:57 39.72342 -105.59096 35101 ft 498 kts 52°
2026-04-20 06:58 39.76344 -105.51720 35107 ft 499 kts 52°
2026-04-20 06:58 39.80342 -105.44332 35117 ft 499 kts 52°
2026-04-20 06:59 39.84337 -105.36927 35135 ft 501 kts 52°
2026-04-20 06:59 39.88318 -105.29531 35162 ft 501 kts 52°
2026-04-20 07:00 39.92305 -105.22103 35192 ft 499 kts 51°
2026-04-20 07:00 39.96279 -105.14692 35180 ft 498 kts 51°
2026-04-20 07:01 40.00230 -105.07298 35156 ft 496 kts 51°
2026-04-20 07:01 40.04165 -104.99917 35087 ft 495 kts 52°
2026-04-20 07:02 40.08100 -104.92521 35085 ft 495 kts 51°
2026-04-20 07:02 40.12026 -104.85125 35077 ft 495 kts 51°
2026-04-20 07:03 40.15951 -104.77712 35104 ft 495 kts 51°
2026-04-20 07:03 40.19866 -104.70300 35135 ft 495 kts 51°
2026-04-20 07:04 40.23773 -104.62888 35143 ft 494 kts 51°
2026-04-20 07:04 40.27643 -104.55525 35157 ft 494 kts 51°
2026-04-20 07:05 40.31537 -104.48102 35153 ft 494 kts 51°
2026-04-20 07:05 40.35422 -104.40678 35145 ft 494 kts 51°
2026-04-20 07:06 40.39306 -104.33239 35141 ft 494 kts 51°
2026-04-20 07:06 40.43190 -104.25781 35127 ft 494 kts 52°
2026-04-20 07:07 40.47038 -104.18376 35131 ft 494 kts 51°
2026-04-20 07:07 40.50902 -104.10920 35104 ft 493 kts 51°
2026-04-20 07:08 40.54756 -104.03465 35100 ft 492 kts 51°
2026-04-20 07:08 40.58591 -103.96030 35115 ft 491 kts 51°
2026-04-20 07:09 40.62425 -103.88581 35080 ft 491 kts 51°
2026-04-20 07:09 40.66230 -103.81170 35080 ft 491 kts 51°
2026-04-20 07:10 40.70048 -103.73716 35067 ft 491 kts 51°
2026-04-20 07:10 40.73865 -103.66245 35078 ft 490 kts 51°
2026-04-20 07:11 40.77674 -103.58773 35114 ft 490 kts 51°
2026-04-20 07:11 40.81479 -103.51289 35088 ft 490 kts 51°
2026-04-20 07:12 40.85244 -103.43864 35094 ft 489 kts 51°
2026-04-20 07:12 40.89022 -103.36398 35087 ft 488 kts 51°
2026-04-20 07:13 40.92789 -103.28936 35089 ft 487 kts 51°
2026-04-20 07:13 40.96540 -103.21488 35093 ft 486 kts 51°
2026-04-20 07:14 41.00288 -103.14029 35093 ft 487 kts 51°
2026-04-20 07:14 41.04031 -103.06559 35188 ft 486 kts 50°
2026-04-20 07:15 41.07765 -102.99091 35153 ft 485 kts 50°
2026-04-20 07:15 41.11457 -102.91687 35153 ft 484 kts 50°
2026-04-20 07:16 41.15172 -102.84222 35150 ft 484 kts 51°
2026-04-20 07:16 41.18873 -102.76766 35179 ft 484 kts 50°
2026-04-20 07:17 41.22573 -102.69291 35132 ft 484 kts 50°
2026-04-20 07:17 41.26263 -102.61821 35127 ft 483 kts 50°
2026-04-20 07:18 41.29928 -102.54384 35127 ft 483 kts 51°
2026-04-20 07:18 41.33605 -102.46903 35138 ft 483 kts 51°
2026-04-20 07:19 41.37283 -102.39401 35171 ft 484 kts 51°
2026-04-20 07:19 41.40962 -102.31881 35148 ft 485 kts 51°
2026-04-20 07:20 41.44636 -102.24351 35142 ft 485 kts 51°
2026-04-20 07:20 41.48304 -102.16812 35146 ft 485 kts 51°
2026-04-20 07:21 41.51968 -102.09266 35145 ft 485 kts 51°
2026-04-20 07:21 41.55636 -102.01695 35167 ft 485 kts 51°
2026-04-20 07:22 41.59276 -101.94161 35141 ft 486 kts 51°
2026-04-20 07:22 41.62931 -101.86573 35144 ft 485 kts 51°
2026-04-20 07:23 41.66581 -101.78979 35146 ft 485 kts 51°
2026-04-20 07:23 41.70236 -101.71359 35329 ft 486 kts 51°
2026-04-20 07:23 41.72058 -101.67551 35590 ft 485 kts 51°
2026-04-20 07:24 41.73260 -101.65036 35771 ft 484 kts 51°
2026-04-20 07:24 41.75072 -101.61238 36019 ft 483 kts 51°
2026-04-20 07:24 41.77469 -101.56213 36301 ft 482 kts 51°
2026-04-20 07:24 41.78690 -101.53649 36411 ft 483 kts 51°
2026-04-20 07:25 41.80496 -101.49855 36581 ft 483 kts 51°
2026-04-20 07:25 41.82283 -101.46097 36761 ft 483 kts 51°
2026-04-20 07:25 41.84082 -101.42306 36979 ft 482 kts 51°
2026-04-20 07:25 41.85883 -101.38506 37105 ft 483 kts 51°
2026-04-20 07:26 41.87688 -101.34695 37149 ft 484 kts 51°
2026-04-20 07:26 41.91297 -101.27054 37185 ft 483 kts 51°
2026-04-20 07:27 41.94884 -101.19442 37177 ft 481 kts 51°
2026-04-20 07:27 41.98456 -101.11842 37179 ft 480 kts 51°
2026-04-20 07:28 42.02017 -101.04251 37176 ft 480 kts 51°
2026-04-20 07:28 42.05576 -100.96645 37192 ft 480 kts 51°
2026-04-20 07:29 42.09113 -100.89065 37196 ft 481 kts 51°
2026-04-20 07:29 42.12670 -100.81422 37203 ft 482 kts 51°
2026-04-20 07:30 42.16223 -100.73768 37199 ft 482 kts 51°
2026-04-20 07:30 42.19773 -100.66100 37206 ft 482 kts 51°
2026-04-20 07:31 42.23323 -100.58413 37202 ft 482 kts 51°
2026-04-20 07:31 42.26870 -100.50713 37211 ft 483 kts 51°
2026-04-20 07:32 42.30389 -100.43055 37206 ft 482 kts 51°
2026-04-20 07:32 42.33919 -100.35351 37214 ft 482 kts 51°
2026-04-20 07:33 42.37448 -100.27629 37214 ft 482 kts 51°
2026-04-20 07:33 42.40964 -100.19917 37237 ft 481 kts 51°
2026-04-20 07:34 42.44475 -100.12195 37203 ft 481 kts 51°
2026-04-20 07:34 42.47979 -100.04470 37192 ft 481 kts 51°
2026-04-20 07:35 42.52853 -99.92515 37197 ft 485 kts 56°
2026-04-20 07:35 42.55828 -99.84366 37196 ft 485 kts 57°
2026-04-20 07:36 42.58821 -99.76162 37211 ft 486 kts 56°
2026-04-20 07:36 42.61836 -99.67934 37226 ft 485 kts 56°
2026-04-20 07:37 42.64851 -99.59709 37219 ft 486 kts 56°
2026-04-20 07:37 42.67852 -99.51502 37244 ft 485 kts 56°
2026-04-20 07:38 42.70830 -99.43333 37254 ft 486 kts 56°
2026-04-20 07:38 42.73824 -99.35093 37243 ft 485 kts 56°
2026-04-20 07:39 42.76806 -99.26858 37244 ft 485 kts 56°
2026-04-20 07:39 42.79779 -99.18627 37244 ft 484 kts 56°
2026-04-20 07:40 42.82741 -99.10401 37245 ft 484 kts 56°
2026-04-20 07:40 42.85703 -99.02153 37252 ft 484 kts 56°
2026-04-20 07:41 42.88654 -98.93909 37263 ft 483 kts 56°
2026-04-20 07:41 42.91598 -98.85660 37257 ft 483 kts 56°
2026-04-20 07:42 42.94529 -98.77425 37252 ft 483 kts 56°
2026-04-20 07:42 42.97456 -98.69175 37288 ft 482 kts 56°
2026-04-20 07:43 43.00356 -98.60979 37266 ft 482 kts 56°
2026-04-20 07:43 43.03269 -98.52721 37261 ft 482 kts 56°
2026-04-20 07:44 43.06177 -98.44450 37266 ft 482 kts 56°
2026-04-20 07:44 43.09080 -98.36172 37239 ft 483 kts 57°
2026-04-20 07:45 43.11980 -98.27878 37245 ft 483 kts 56°
2026-04-20 07:45 43.14877 -98.19565 37250 ft 484 kts 56°
2026-04-20 07:46 43.17773 -98.11229 37251 ft 484 kts 57°
2026-04-20 07:46 43.20660 -98.02893 37266 ft 484 kts 57°
2026-04-20 07:47 43.23542 -97.94548 37302 ft 484 kts 57°
2026-04-20 07:47 43.26402 -97.86242 37301 ft 484 kts 57°
2026-04-20 07:48 43.29274 -97.77871 37298 ft 484 kts 57°
2026-04-20 07:48 43.32133 -97.69517 37302 ft 483 kts 57°
2026-04-20 07:49 43.34986 -97.61153 37305 ft 483 kts 57°
2026-04-20 07:49 43.37814 -97.52839 37308 ft 483 kts 57°
2026-04-20 07:50 43.40651 -97.44472 37313 ft 483 kts 57°
2026-04-20 07:50 43.43487 -97.36083 37300 ft 483 kts 57°
2026-04-20 07:51 43.46312 -97.27697 37300 ft 483 kts 57°
2026-04-20 07:51 43.49134 -97.19297 37298 ft 483 kts 57°
2026-04-20 07:52 43.51948 -97.10893 37297 ft 483 kts 57°
2026-04-20 07:52 43.54757 -97.02480 37288 ft 483 kts 57°
2026-04-20 07:53 43.57562 -96.94050 37286 ft 483 kts 57°
2026-04-20 07:53 43.60344 -96.85665 37300 ft 483 kts 57°
2026-04-20 07:54 43.63140 -96.77210 37326 ft 485 kts 57°
2026-04-20 07:54 43.65941 -96.68715 37308 ft 485 kts 57°
2026-04-20 07:55 43.68734 -96.60214 37303 ft 486 kts 57°
2026-04-20 07:55 43.71518 -96.51714 37309 ft 486 kts 57°
2026-04-20 07:56 43.74300 -96.43191 37322 ft 486 kts 57°
2026-04-20 07:56 43.77078 -96.34658 37302 ft 487 kts 57°
2026-04-20 07:57 43.79836 -96.26156 37301 ft 486 kts 58°
2026-04-20 07:57 43.82601 -96.17604 37298 ft 486 kts 58°
2026-04-20 07:58 43.85358 -96.09050 37300 ft 485 kts 58°
2026-04-20 07:58 43.88109 -96.00489 37310 ft 486 kts 58°
2026-04-20 07:59 43.90835 -95.91977 37299 ft 485 kts 58°
2026-04-20 07:59 43.93568 -95.83412 37295 ft 485 kts 58°
2026-04-20 08:00 43.96294 -95.74847 37291 ft 484 kts 58°
2026-04-20 08:00 43.99007 -95.66289 37305 ft 484 kts 58°
2026-04-20 08:01 44.01716 -95.57723 37317 ft 484 kts 58°
2026-04-20 08:01 44.04416 -95.49154 37309 ft 484 kts 58°
2026-04-20 08:02 44.07109 -95.40577 37310 ft 484 kts 58°
2026-04-20 08:02 44.09800 -95.31979 37356 ft 484 kts 58°
2026-04-20 08:03 44.12467 -95.23432 37316 ft 485 kts 58°
2026-04-20 08:03 44.15152 -95.14798 37342 ft 485 kts 58°
2026-04-20 08:04 44.17822 -95.06181 37330 ft 485 kts 58°
2026-04-20 08:04 44.20489 -94.97546 37334 ft 485 kts 58°
2026-04-20 08:05 44.23149 -94.88906 37337 ft 485 kts 58°
2026-04-20 08:05 44.25806 -94.80244 37336 ft 485 kts 58°
2026-04-20 08:06 44.28455 -94.71580 37342 ft 485 kts 58°
2026-04-20 08:06 44.31078 -94.62972 37312 ft 485 kts 58°
2026-04-20 08:07 44.33713 -94.54297 37361 ft 485 kts 58°
2026-04-20 08:07 44.36344 -94.45604 37316 ft 486 kts 58°
2026-04-20 08:08 44.38969 -94.36902 37304 ft 485 kts 58°
2026-04-20 08:08 44.41583 -94.28205 37324 ft 485 kts 58°
2026-04-20 08:09 44.44187 -94.19514 37331 ft 484 kts 58°
2026-04-20 08:09 44.46786 -94.10811 37342 ft 485 kts 58°
2026-04-20 08:10 44.49377 -94.02154 37335 ft 483 kts 57°
2026-04-20 08:10 44.52016 -93.95369 37327 ft 471 kts 48°
2026-04-20 08:11 44.56211 -93.86404 37350 ft 471 kts 48°
2026-04-20 08:11 44.59196 -93.80013 37375 ft 471 kts 48°
2026-04-20 08:12 44.62774 -93.72262 37336 ft 473 kts 48°
2026-04-20 08:12 44.66331 -93.64493 37324 ft 473 kts 48°
2026-04-20 08:13 44.69861 -93.56749 37315 ft 473 kts 49°
2026-04-20 08:13 44.73406 -93.48956 37311 ft 473 kts 49°
2026-04-20 08:14 44.76951 -93.41145 37318 ft 473 kts 49°
2026-04-20 08:14 44.80486 -93.33335 37308 ft 472 kts 49°
2026-04-20 08:15 44.84013 -93.25522 37330 ft 472 kts 49°
2026-04-20 08:15 44.87531 -93.17706 37328 ft 472 kts 49°
2026-04-20 08:16 44.91026 -93.09921 37343 ft 472 kts 49°
2026-04-20 08:16 44.94537 -93.02080 37361 ft 473 kts 49°
2026-04-20 08:17 44.98059 -92.94191 37352 ft 474 kts 49°
2026-04-20 08:17 45.01569 -92.86307 37342 ft 474 kts 49°
2026-04-20 08:18 45.05049 -92.78467 37336 ft 474 kts 49°
2026-04-20 08:18 45.08548 -92.70565 37331 ft 473 kts 49°
2026-04-20 08:19 45.12037 -92.62664 37337 ft 473 kts 49°
2026-04-20 08:19 45.15522 -92.54749 37331 ft 474 kts 49°
2026-04-20 08:20 45.19006 -92.46815 37335 ft 474 kts 49°
2026-04-20 08:20 45.22477 -92.38886 37335 ft 473 kts 49°
2026-04-20 08:21 45.25951 -92.30929 37379 ft 473 kts 49°
2026-04-20 08:21 45.29415 -92.22974 37347 ft 474 kts 49°
2026-04-20 08:22 45.32855 -92.15051 37328 ft 474 kts 49°
2026-04-20 08:22 45.36307 -92.07077 37319 ft 474 kts 49°
2026-04-20 08:23 45.39760 -91.99078 37321 ft 474 kts 49°
2026-04-20 08:23 45.43206 -91.91075 37346 ft 474 kts 50°
2026-04-20 08:24 45.46647 -91.83061 37337 ft 474 kts 50°
2026-04-20 08:24 45.50082 -91.75036 37330 ft 474 kts 50°
2026-04-20 08:25 45.53507 -91.67010 37335 ft 473 kts 50°
2026-04-20 08:25 45.56905 -91.59026 37349 ft 473 kts 50°
2026-04-20 08:26 45.60322 -91.50977 37339 ft 475 kts 50°
2026-04-20 08:26 45.63738 -91.42904 37357 ft 475 kts 50°
2026-04-20 08:27 45.67150 -91.34819 37343 ft 475 kts 50°
2026-04-20 08:27 45.70551 -91.26733 37350 ft 474 kts 50°
2026-04-20 08:28 45.73954 -91.18620 37347 ft 475 kts 50°
2026-04-20 08:28 45.77353 -91.10500 37379 ft 476 kts 50°
2026-04-20 08:29 45.80752 -91.02349 37364 ft 477 kts 50°
2026-04-20 08:29 45.84150 -90.94178 37353 ft 477 kts 51°
2026-04-20 08:30 45.87534 -90.86015 37361 ft 476 kts 51°
2026-04-20 08:30 45.90897 -90.77881 37390 ft 476 kts 51°
2026-04-20 08:31 45.94278 -90.69681 37350 ft 477 kts 51°
2026-04-20 08:31 45.97656 -90.61462 37364 ft 477 kts 51°
2026-04-20 08:32 46.01034 -90.53219 37351 ft 478 kts 51°
2026-04-20 08:32 46.04404 -90.44969 37356 ft 478 kts 51°
2026-04-20 08:33 46.09455 -90.32564 37363 ft 480 kts 51°
2026-04-20 08:34 46.12806 -90.24299 37360 ft 480 kts 51°
2026-04-20 08:34 46.16170 -90.15976 37361 ft 480 kts 51°
2026-04-20 08:35 46.19533 -90.07635 37366 ft 480 kts 51°
2026-04-20 08:35 46.22884 -89.99295 37384 ft 480 kts 52°
2026-04-20 08:36 46.26238 -89.90925 37367 ft 481 kts 52°
2026-04-20 08:36 46.29562 -89.82604 37362 ft 481 kts 52°
2026-04-20 08:37 46.32907 -89.74205 37361 ft 481 kts 52°
2026-04-20 08:37 46.36242 -89.65801 37361 ft 481 kts 52°
2026-04-20 08:38 46.39572 -89.57389 37367 ft 481 kts 52°
2026-04-20 08:38 46.42897 -89.48963 37350 ft 481 kts 52°
2026-04-20 08:39 46.46214 -89.40528 37349 ft 481 kts 52°
2026-04-20 08:39 46.49520 -89.32097 37356 ft 481 kts 52°
2026-04-20 08:40 46.52823 -89.23649 37357 ft 481 kts 52°
2026-04-20 08:40 46.56099 -89.15244 37351 ft 481 kts 53°
2026-04-20 08:41 46.59392 -89.06771 37354 ft 482 kts 53°
2026-04-20 08:41 46.62685 -88.98268 37352 ft 482 kts 53°
2026-04-20 08:42 46.65969 -88.89763 37346 ft 482 kts 53°
2026-04-20 08:42 46.69251 -88.81236 37343 ft 482 kts 53°
2026-04-20 08:43 46.72528 -88.72693 37349 ft 483 kts 53°
2026-04-20 08:43 46.75780 -88.64191 37343 ft 483 kts 53°
2026-04-20 08:44 46.79048 -88.55619 37337 ft 483 kts 53°
2026-04-20 08:44 46.82315 -88.47023 37339 ft 483 kts 53°
2026-04-20 08:45 46.85564 -88.38446 37335 ft 483 kts 53°
2026-04-20 08:45 46.88811 -88.29846 37350 ft 484 kts 54°
2026-04-20 08:46 46.92055 -88.21228 37337 ft 484 kts 54°
2026-04-20 08:46 46.95276 -88.12643 37350 ft 484 kts 54°
2026-04-20 08:47 46.98509 -88.04001 37339 ft 484 kts 54°
2026-04-20 08:47 47.01606 -87.95213 37347 ft 487 kts 57°
2026-04-20 08:48 47.04474 -87.86192 37355 ft 488 kts 58°
2026-04-20 08:48 47.07317 -87.77132 37352 ft 489 kts 58°
2026-04-20 08:49 47.10151 -87.68142 37342 ft 489 kts 58°
2026-04-20 08:49 47.13016 -87.59071 37346 ft 489 kts 58°
2026-04-20 08:50 47.15873 -87.50006 37389 ft 489 kts 59°
2026-04-20 08:50 47.18732 -87.40901 37350 ft 490 kts 59°
2026-04-20 08:51 47.21578 -87.31798 37342 ft 490 kts 59°
2026-04-20 08:51 47.24420 -87.22672 37345 ft 490 kts 59°
2026-04-20 08:52 47.27254 -87.13542 37345 ft 490 kts 59°
2026-04-20 08:52 47.30063 -87.04460 37349 ft 491 kts 59°
2026-04-20 08:53 47.32885 -86.95305 37346 ft 491 kts 59°
2026-04-20 08:53 47.35707 -86.86114 37358 ft 491 kts 59°
2026-04-20 08:54 47.38521 -86.76914 37350 ft 492 kts 59°
2026-04-20 08:54 47.41327 -86.67708 37346 ft 492 kts 59°
2026-04-20 08:55 47.44113 -86.58534 37342 ft 493 kts 60°
2026-04-20 08:55 47.46911 -86.49287 37334 ft 493 kts 60°
2026-04-20 08:56 47.49703 -86.40022 37335 ft 493 kts 60°
2026-04-20 08:56 47.52495 -86.30725 37342 ft 494 kts 60°
2026-04-20 08:57 47.55278 -86.21421 37365 ft 494 kts 60°
2026-04-20 08:57 47.58057 -86.12099 37342 ft 495 kts 61°
2026-04-20 08:58 47.60831 -86.02755 37332 ft 495 kts 61°
2026-04-20 08:58 47.63594 -85.93412 37335 ft 495 kts 61°
2026-04-20 08:59 47.66333 -85.84115 37334 ft 495 kts 61°
2026-04-20 08:59 47.69081 -85.74755 37340 ft 495 kts 61°
2026-04-20 09:00 47.71385 -85.66879 37338 ft 496 kts 61°
2026-04-20 09:00 47.74104 -85.57545 37346 ft 496 kts 61°
2026-04-20 09:01 47.76840 -85.48129 37339 ft 496 kts 62°
2026-04-20 09:01 47.79563 -85.38711 37339 ft 496 kts 62°
2026-04-20 09:02 47.82281 -85.29278 37334 ft 495 kts 62°
2026-04-20 09:02 47.84987 -85.19849 37327 ft 495 kts 62°
2026-04-20 09:03 47.87687 -85.10404 37333 ft 495 kts 62°
2026-04-20 09:03 47.90379 -85.00950 37331 ft 495 kts 62°
2026-04-20 09:04 47.93062 -84.91491 37339 ft 495 kts 62°
2026-04-20 09:04 47.95738 -84.82022 37335 ft 496 kts 62°
2026-04-20 09:05 47.98622 -84.72707 37319 ft 493 kts 58°
2026-04-20 09:05 48.01809 -84.63717 37328 ft 492 kts 57°
2026-04-20 09:06 48.05037 -84.54688 37332 ft 493 kts 57°
2026-04-20 09:06 48.08231 -84.45594 37354 ft 494 kts 58°
2026-04-20 09:07 48.11403 -84.36446 37331 ft 496 kts 58°
2026-04-20 09:07 48.14563 -84.27275 37326 ft 496 kts 58°
2026-04-20 09:08 48.17724 -84.18073 37327 ft 496 kts 58°
2026-04-20 09:08 48.20856 -84.08931 37325 ft 496 kts 58°
2026-04-20 09:09 48.24001 -83.99721 37348 ft 496 kts 58°
2026-04-20 09:09 48.27141 -83.90491 37334 ft 497 kts 59°
2026-04-20 09:10 48.30282 -83.81230 37328 ft 498 kts 59°
2026-04-20 09:10 48.33418 -83.71944 37324 ft 498 kts 59°
2026-04-20 09:11 48.36545 -83.62653 37317 ft 498 kts 59°
2026-04-20 09:11 48.39666 -83.53346 37336 ft 498 kts 59°
2026-04-20 09:12 48.42786 -83.44010 37312 ft 499 kts 59°
2026-04-20 09:12 48.45884 -83.34704 37322 ft 499 kts 59°
2026-04-20 09:13 48.48991 -83.25334 37317 ft 500 kts 60°
2026-04-20 09:13 48.52093 -83.15949 37316 ft 500 kts 60°
2026-04-20 09:14 48.55188 -83.06550 37309 ft 500 kts 60°
2026-04-20 09:14 48.58281 -82.97119 37316 ft 501 kts 60°
2026-04-20 09:15 48.61369 -82.87674 37308 ft 502 kts 60°
2026-04-20 09:15 48.64450 -82.78211 37310 ft 502 kts 60°
2026-04-20 09:16 48.67531 -82.68715 37307 ft 502 kts 60°
2026-04-20 09:16 48.70581 -82.59276 37302 ft 502 kts 60°
2026-04-20 09:17 48.73643 -82.49764 37307 ft 503 kts 61°
2026-04-20 09:17 48.76704 -82.40224 37302 ft 504 kts 61°
2026-04-20 09:18 48.79765 -82.30645 37297 ft 504 kts 61°
2026-04-20 09:18 48.82816 -82.21059 37309 ft 504 kts 61°
2026-04-20 09:19 48.85860 -82.11460 37293 ft 504 kts 61°
2026-04-20 09:19 48.88878 -82.01907 37299 ft 505 kts 62°
2026-04-20 09:20 48.91907 -81.92281 37284 ft 505 kts 62°
2026-04-20 09:20 48.94933 -81.82626 37289 ft 505 kts 62°
2026-04-20 09:21 48.97955 -81.72949 37295 ft 505 kts 62°
2026-04-20 09:21 49.00950 -81.63320 37296 ft 506 kts 62°
2026-04-20 09:22 49.03954 -81.53616 37285 ft 506 kts 63°
2026-04-20 09:22 49.06956 -81.43909 37294 ft 506 kts 63°
2026-04-20 09:23 49.09949 -81.34173 37293 ft 506 kts 63°
2026-04-20 09:23 49.12933 -81.24418 37280 ft 507 kts 63°
2026-04-20 09:24 49.15910 -81.14652 37281 ft 507 kts 63°
2026-04-20 09:24 49.18864 -81.04939 37280 ft 507 kts 63°
2026-04-20 09:25 49.21831 -80.95129 37276 ft 507 kts 63°
2026-04-20 09:25 49.24786 -80.85321 37274 ft 508 kts 63°
2026-04-20 09:26 49.27736 -80.75490 37272 ft 508 kts 63°
2026-04-20 09:26 49.30679 -80.65646 37264 ft 508 kts 64°
2026-04-20 09:27 49.33611 -80.55798 37262 ft 508 kts 64°
2026-04-20 09:27 49.36538 -80.45926 37268 ft 508 kts 64°
2026-04-20 09:28 49.39435 -80.36117 37259 ft 508 kts 64°
2026-04-20 09:28 49.42345 -80.26223 37253 ft 508 kts 64°
2026-04-20 09:29 49.45247 -80.16319 37248 ft 508 kts 64°
2026-04-20 09:29 49.48141 -80.06410 37245 ft 508 kts 64°
2026-04-20 09:30 49.51126 -79.96561 37240 ft 507 kts 60°
2026-04-20 09:30 49.54525 -79.87145 37246 ft 506 kts 58°
2026-04-20 09:31 49.58038 -79.77727 37244 ft 507 kts 58°
2026-04-20 09:31 49.61515 -79.68246 37236 ft 507 kts 59°
2026-04-20 09:32 49.64948 -79.58725 37237 ft 508 kts 59°
2026-04-20 09:32 49.68366 -79.49173 37231 ft 508 kts 59°
2026-04-20 09:33 49.71760 -79.39654 37239 ft 508 kts 60°
2026-04-20 09:33 49.75170 -79.30061 37233 ft 509 kts 60°
2026-04-20 09:34 49.78579 -79.20441 37220 ft 509 kts 60°
2026-04-20 09:34 49.83654 -79.06054 37219 ft 509 kts 60°
2026-04-20 09:35 49.87035 -78.96419 37211 ft 509 kts 60°
2026-04-20 09:35 49.90420 -78.86749 37227 ft 510 kts 60°
2026-04-20 09:36 49.93799 -78.77052 37216 ft 510 kts 60°
2026-04-20 09:36 49.97162 -78.67356 37209 ft 510 kts 60°
2026-04-20 09:37 50.00521 -78.57639 37212 ft 510 kts 60°
2026-04-20 09:37 50.03872 -78.47906 37208 ft 510 kts 61°
2026-04-20 09:38 50.07193 -78.38232 37206 ft 510 kts 61°
2026-04-20 09:38 50.10531 -78.28465 37205 ft 511 kts 61°
2026-04-20 09:39 50.13863 -78.18681 37199 ft 511 kts 61°
2026-04-20 09:39 50.17180 -78.08898 37194 ft 511 kts 61°
2026-04-20 09:40 50.20494 -77.99091 37197 ft 511 kts 61°
2026-04-20 09:40 50.23805 -77.89253 37193 ft 511 kts 62°
2026-04-20 09:41 50.27103 -77.79415 37180 ft 511 kts 62°
2026-04-20 09:41 50.30399 -77.69547 37195 ft 511 kts 62°
2026-04-20 09:42 50.33664 -77.59732 37190 ft 511 kts 62°
2026-04-20 09:42 50.36939 -77.49847 37167 ft 511 kts 62°
2026-04-20 09:43 50.40207 -77.39948 37160 ft 512 kts 62°
2026-04-20 09:43 50.43477 -77.30001 37168 ft 512 kts 62°
2026-04-20 09:44 50.46736 -77.20042 37172 ft 512 kts 62°
2026-04-20 09:44 50.49984 -77.10083 37166 ft 512 kts 62°
2026-04-20 09:45 50.53206 -77.00164 37167 ft 513 kts 62°
2026-04-20 09:45 50.55896 -76.91854 37159 ft 513 kts 63°
2026-04-20 09:46 50.59124 -76.81838 37161 ft 513 kts 63°
2026-04-20 09:46 50.62343 -76.71820 37156 ft 513 kts 63°
2026-04-20 09:47 50.65558 -76.61771 37154 ft 514 kts 63°
2026-04-20 09:47 50.68769 -76.51691 37152 ft 514 kts 63°
2026-04-20 09:48 50.71976 -76.41579 37150 ft 514 kts 63°
2026-04-20 09:48 50.75149 -76.31536 37145 ft 515 kts 63°
2026-04-20 09:49 50.78338 -76.21404 37152 ft 515 kts 64°
2026-04-20 09:49 50.81522 -76.11244 37131 ft 516 kts 64°
2026-04-20 09:50 50.84703 -76.01048 37139 ft 516 kts 64°
2026-04-20 09:50 50.87853 -75.90912 37122 ft 516 kts 64°
2026-04-20 09:51 50.91015 -75.80695 37124 ft 516 kts 64°
2026-04-20 09:51 50.94171 -75.70456 37117 ft 517 kts 65°
2026-04-20 09:52 50.97318 -75.60207 37119 ft 517 kts 65°
2026-04-20 09:52 51.00458 -75.49933 37117 ft 518 kts 65°
2026-04-20 09:53 51.03597 -75.39616 37118 ft 518 kts 65°
2026-04-20 09:53 51.06724 -75.29296 37118 ft 518 kts 65°
2026-04-20 09:54 51.09846 -75.18949 37110 ft 518 kts 65°
2026-04-20 09:54 51.12960 -75.08586 37112 ft 519 kts 65°
2026-04-20 09:55 51.16043 -74.98281 37109 ft 519 kts 65°
2026-04-20 09:55 51.19136 -74.87899 37110 ft 518 kts 66°
2026-04-20 09:56 51.22220 -74.77500 37097 ft 518 kts 66°
2026-04-20 09:56 51.25291 -74.67101 37096 ft 518 kts 66°
2026-04-20 09:57 51.28355 -74.56683 37100 ft 518 kts 66°
2026-04-20 09:57 51.31407 -74.46256 37085 ft 518 kts 66°
2026-04-20 09:58 51.34457 -74.35793 37095 ft 519 kts 66°
2026-04-20 09:58 51.37499 -74.25311 37092 ft 520 kts 66°
2026-04-20 09:59 51.40534 -74.14807 37091 ft 520 kts 67°
2026-04-20 09:59 51.43551 -74.04319 37089 ft 520 kts 67°
2026-04-20 10:00 51.46569 -73.93782 37070 ft 521 kts 67°
2026-04-20 10:00 51.49589 -73.83192 37083 ft 521 kts 68°
2026-04-20 10:01 51.52597 -73.72591 37084 ft 522 kts 68°
2026-04-20 10:01 51.55597 -73.61974 37081 ft 522 kts 68°
2026-04-20 10:02 51.58589 -73.51338 37072 ft 522 kts 68°
2026-04-20 10:02 51.61557 -73.40739 37069 ft 522 kts 68°
2026-04-20 10:03 51.64529 -73.30078 37060 ft 522 kts 68°
2026-04-20 10:03 51.67490 -73.19407 37068 ft 522 kts 68°
2026-04-20 10:04 51.70445 -73.08705 37068 ft 522 kts 69°
2026-04-20 10:04 51.73389 -72.97999 37061 ft 523 kts 69°
2026-04-20 10:05 51.76330 -72.87252 37077 ft 523 kts 69°
2026-04-20 10:05 51.79261 -72.76492 37063 ft 524 kts 69°
2026-04-20 10:06 51.82187 -72.65703 37066 ft 524 kts 69°
2026-04-20 10:06 51.85084 -72.54965 37068 ft 524 kts 69°
2026-04-20 10:07 51.87996 -72.44126 37060 ft 525 kts 70°
2026-04-20 10:07 51.90914 -72.33211 37057 ft 525 kts 70°
2026-04-20 10:08 51.93793 -72.22391 37055 ft 525 kts 70°
2026-04-20 10:08 51.96678 -72.11497 37014 ft 525 kts 70°
2026-04-20 10:09 51.99554 -72.00586 37043 ft 525 kts 70°
2026-04-20 10:09 52.02399 -71.89738 37049 ft 525 kts 70°
2026-04-20 10:10 52.05256 -71.78794 37047 ft 526 kts 71°
2026-04-20 10:10 52.08102 -71.67838 37045 ft 526 kts 71°
2026-04-20 10:11 52.10943 -71.56849 37040 ft 526 kts 71°
2026-04-20 10:11 52.13768 -71.45871 37028 ft 525 kts 71°
2026-04-20 10:12 52.16579 -71.34889 37033 ft 525 kts 71°
2026-04-20 10:12 52.19383 -71.23882 37037 ft 525 kts 71°
2026-04-20 10:13 52.22177 -71.12861 37032 ft 526 kts 72°
2026-04-20 10:13 52.24939 -71.01911 37032 ft 525 kts 72°
2026-04-20 10:14 52.27714 -70.90859 37035 ft 525 kts 72°
2026-04-20 10:14 52.30476 -70.79800 37023 ft 525 kts 72°
2026-04-20 10:15 52.33227 -70.68730 37025 ft 526 kts 72°
2026-04-20 10:15 52.35969 -70.57637 37024 ft 526 kts 72°
2026-04-20 10:16 52.38711 -70.46494 37010 ft 527 kts 73°
2026-04-20 10:16 52.41424 -70.35413 37015 ft 527 kts 73°
2026-04-20 10:17 52.44140 -70.24260 37014 ft 527 kts 73°
2026-04-20 10:17 52.46846 -70.13093 37018 ft 527 kts 74°
2026-04-20 10:18 52.49545 -70.01904 36997 ft 528 kts 74°
2026-04-20 10:18 52.52339 -69.90731 37017 ft 529 kts 72°
2026-04-20 10:19 52.55286 -69.79640 37005 ft 530 kts 72°
2026-04-20 10:19 52.58215 -69.68598 37005 ft 530 kts 72°
2026-04-20 10:20 52.61126 -69.57448 36967 ft 530 kts 72°
2026-04-20 10:20 52.64007 -69.46288 36983 ft 529 kts 73°
2026-04-20 10:21 52.66875 -69.35106 36991 ft 531 kts 73°
2026-04-20 10:21 52.69744 -69.23871 36979 ft 531 kts 73°
2026-04-20 10:22 52.72588 -69.12690 36982 ft 532 kts 73°
2026-04-20 10:22 52.75444 -69.01406 36972 ft 532 kts 73°
2026-04-20 10:23 52.78285 -68.90124 36972 ft 532 kts 73°
2026-04-20 10:23 52.81112 -68.78839 36970 ft 531 kts 73°
2026-04-20 10:24 52.83928 -68.67542 36956 ft 530 kts 74°
2026-04-20 10:24 52.86729 -68.56243 36952 ft 530 kts 74°
2026-04-20 10:25 52.89503 -68.45000 36943 ft 530 kts 74°
2026-04-20 10:25 52.92276 -68.33700 36943 ft 530 kts 74°
2026-04-20 10:26 52.95043 -68.22365 36876 ft 529 kts 75°
2026-04-20 10:26 52.97799 -68.11020 36928 ft 529 kts 75°
2026-04-20 10:27 53.00540 -67.99676 36934 ft 530 kts 75°
2026-04-20 10:27 53.03280 -67.88277 36932 ft 531 kts 75°
2026-04-20 10:28 53.06010 -67.76856 36928 ft 532 kts 75°
2026-04-20 10:28 53.08716 -67.65482 36912 ft 532 kts 75°
2026-04-20 10:29 53.11429 -67.54018 36844 ft 532 kts 76°
2026-04-20 10:29 53.14069 -67.42555 36884 ft 530 kts 76°
2026-04-20 10:30 53.16767 -67.31125 36885 ft 531 kts 76°
2026-04-20 10:30 53.19468 -67.19660 36899 ft 532 kts 76°
2026-04-20 10:31 53.22143 -67.08147 36864 ft 533 kts 77°
2026-04-20 10:31 53.23475 -67.02368 37006 ft 534 kts 76°
2026-04-20 10:31 53.24805 -66.96585 37282 ft 532 kts 76°
2026-04-20 10:32 53.26124 -66.90837 37580 ft 529 kts 76°
2026-04-20 10:32 53.27420 -66.85175 37870 ft 527 kts 76°
2026-04-20 10:32 53.28726 -66.79456 37988 ft 527 kts 77°
2026-04-20 10:32 53.30032 -66.73704 38118 ft 529 kts 77°
2026-04-20 10:33 53.31335 -66.67954 38331 ft 529 kts 76°
2026-04-20 10:33 53.32197 -66.64148 38490 ft 528 kts 76°
2026-04-20 10:33 53.33492 -66.58415 38707 ft 526 kts 76°
2026-04-20 10:33 53.34785 -66.52674 38768 ft 528 kts 76°
2026-04-20 10:34 53.37376 -66.41119 38839 ft 529 kts 76°
2026-04-20 10:35 53.41226 -66.23857 38833 ft 525 kts 77°
2026-04-20 10:35 53.43764 -66.12385 38797 ft 525 kts 77°
2026-04-20 10:36 53.46292 -66.00890 38829 ft 525 kts 77°
2026-04-20 10:36 53.48812 -65.89370 38835 ft 527 kts 77°
2026-04-20 10:37 53.51313 -65.77870 38829 ft 528 kts 77°
2026-04-20 10:37 53.53832 -65.66234 38807 ft 530 kts 77°
2026-04-20 10:38 53.56344 -65.54560 38821 ft 531 kts 77°
2026-04-20 10:38 53.58851 -65.42847 38729 ft 531 kts 77°
2026-04-20 10:39 53.61341 -65.31142 38797 ft 530 kts 77°
2026-04-20 10:39 53.63799 -65.19524 38800 ft 530 kts 77°
2026-04-20 10:40 53.66262 -65.07809 38786 ft 530 kts 77°
2026-04-20 10:40 53.68715 -64.96077 38777 ft 529 kts 77°
2026-04-20 10:41 53.71148 -64.84371 38768 ft 527 kts 77°
2026-04-20 10:41 53.73565 -64.72677 38768 ft 526 kts 77°
2026-04-20 10:42 53.75960 -64.61015 38761 ft 525 kts 77°
2026-04-20 10:42 53.78327 -64.49426 38730 ft 524 kts 77°
2026-04-20 10:43 53.80696 -64.37752 38713 ft 524 kts 77°
2026-04-20 10:43 53.83049 -64.26093 38707 ft 523 kts 77°
2026-04-20 10:44 53.85388 -64.14438 38713 ft 523 kts 77°
2026-04-20 10:44 53.87715 -64.02768 38719 ft 522 kts 78°
2026-04-20 10:45 53.90028 -63.91104 38700 ft 520 kts 78°
2026-04-20 10:45 53.92321 -63.79468 38706 ft 519 kts 78°
2026-04-20 10:46 53.94587 -63.67903 38685 ft 518 kts 78°
2026-04-20 10:46 53.96844 -63.56307 38698 ft 517 kts 78°
2026-04-20 10:47 53.99088 -63.44708 38688 ft 516 kts 78°
2026-04-20 10:47 54.01319 -63.33110 38672 ft 516 kts 79°
2026-04-20 10:48 54.03542 -63.21481 38607 ft 516 kts 80°
2026-04-20 10:48 54.05749 -63.09871 38626 ft 515 kts 80°
2026-04-20 10:49 54.07943 -62.98254 38649 ft 516 kts 80°
2026-04-20 10:49 54.10114 -62.86676 38651 ft 517 kts 80°
2026-04-20 10:50 54.12298 -62.74968 38629 ft 518 kts 80°
2026-04-20 10:50 54.14473 -62.63238 38629 ft 519 kts 80°
2026-04-20 10:51 54.16639 -62.51479 38636 ft 520 kts 81°
2026-04-20 10:51 54.18800 -62.39673 38604 ft 519 kts 81°
2026-04-20 10:52 54.20944 -62.27891 38608 ft 519 kts 81°
2026-04-20 10:52 54.23073 -62.16109 38607 ft 519 kts 81°
2026-04-20 10:53 54.25190 -62.04319 38605 ft 519 kts 81°
2026-04-20 10:53 54.27282 -61.92592 38597 ft 518 kts 81°
2026-04-20 10:54 54.29378 -61.80764 38589 ft 518 kts 81°
2026-04-20 10:54 54.31456 -61.68968 38584 ft 516 kts 81°
2026-04-20 10:55 54.33517 -61.57198 38588 ft 515 kts 82°
2026-04-20 10:55 54.35560 -61.45435 38586 ft 514 kts 82°
2026-04-20 10:56 54.37576 -61.33756 38580 ft 513 kts 82°
2026-04-20 10:56 54.39592 -61.22000 38576 ft 513 kts 82°
2026-04-20 10:57 54.41593 -61.10254 38558 ft 512 kts 82°
2026-04-20 10:57 54.43580 -60.98515 38496 ft 511 kts 82°
2026-04-20 10:58 54.45550 -60.86805 38559 ft 509 kts 82°
2026-04-20 10:58 54.47499 -60.75131 38562 ft 508 kts 82°
2026-04-20 10:59 54.49436 -60.63447 38574 ft 506 kts 82°
2026-04-20 10:59 54.51355 -60.51792 38577 ft 507 kts 82°
2026-04-20 11:00 54.53267 -60.40095 38551 ft 508 kts 82°
2026-04-20 11:00 54.55172 -60.28363 38566 ft 508 kts 82°
2026-04-20 11:01 54.57051 -60.16729 38529 ft 507 kts 82°
2026-04-20 11:01 54.58929 -60.05026 38562 ft 506 kts 82°
2026-04-20 11:02 54.60794 -59.93305 38580 ft 507 kts 82°
2026-04-20 11:02 54.62651 -59.81546 38577 ft 508 kts 82°
2026-04-20 11:03 54.64502 -59.69755 38575 ft 509 kts 82°
2026-04-20 11:03 54.66341 -59.57955 38599 ft 509 kts 82°
2026-04-20 11:04 54.68161 -59.46183 38546 ft 511 kts 82°
2026-04-20 11:04 54.69985 -59.34315 38577 ft 511 kts 82°
2026-04-20 11:05 54.71800 -59.22411 38580 ft 511 kts 82°
2026-04-20 11:05 54.73600 -59.10527 38603 ft 510 kts 82°
2026-04-20 11:06 54.75377 -58.98704 38601 ft 510 kts 82°
2026-04-20 11:06 54.77151 -58.86808 38591 ft 510 kts 82°
2026-04-20 11:07 54.78913 -58.74912 38591 ft 509 kts 82°
2026-04-20 11:07 54.80659 -58.63029 38578 ft 506 kts 82°
2026-04-20 11:08 54.82381 -58.51230 38591 ft 503 kts 82°
2026-04-20 11:08 54.84083 -58.39472 38592 ft 501 kts 82°
2026-04-20 11:09 54.85763 -58.27783 38599 ft 498 kts 83°
2026-04-20 11:09 54.87422 -58.16137 38599 ft 496 kts 83°
2026-04-20 11:10 54.89068 -58.04504 38610 ft 496 kts 83°
2026-04-20 11:10 54.90693 -57.92926 38613 ft 496 kts 83°
2026-04-20 11:11 54.92318 -57.81266 38625 ft 495 kts 82°
2026-04-20 11:11 54.93927 -57.69639 38595 ft 493 kts 82°
2026-04-20 11:12 54.95517 -57.58053 38624 ft 491 kts 82°
2026-04-20 11:12 54.97089 -57.46515 38631 ft 489 kts 82°
2026-04-20 11:13 54.98645 -57.34995 38631 ft 488 kts 82°
2026-04-20 11:13 55.00189 -57.23478 38643 ft 488 kts 82°
2026-04-20 11:14 55.01725 -57.11951 38646 ft 488 kts 82°
2026-04-20 11:14 55.03503 -57.00533 38624 ft 491 kts 73°
2026-04-20 11:15 55.06478 -56.89768 38655 ft 495 kts 63°
2026-04-20 11:15 55.09900 -56.79379 38659 ft 497 kts 63°
2026-04-20 11:16 55.13333 -56.68877 38664 ft 498 kts 64°
2026-04-20 11:16 55.16737 -56.58299 38669 ft 499 kts 64°
2026-04-20 11:17 55.20125 -56.47671 38660 ft 500 kts 63°
2026-04-20 11:17 55.23504 -56.37015 38676 ft 501 kts 64°
2026-04-20 11:18 55.26889 -56.26301 38690 ft 502 kts 64°
2026-04-20 11:18 55.30261 -56.15578 38694 ft 502 kts 64°
2026-04-20 11:19 55.33602 -56.04909 38686 ft 502 kts 64°
2026-04-20 11:19 55.36959 -55.94141 38683 ft 502 kts 63°
2026-04-20 11:20 55.39738 -55.85191 38700 ft 501 kts 64°
2026-04-20 11:20 55.43071 -55.74415 38711 ft 501 kts 64°
2026-04-20 11:21 55.46393 -55.63620 38716 ft 501 kts 64°
2026-04-20 11:21 55.49703 -55.52817 38708 ft 501 kts 64°
2026-04-20 11:22 55.53007 -55.41986 38732 ft 501 kts 64°
2026-04-20 11:22 55.56300 -55.31138 38737 ft 501 kts 64°
2026-04-20 11:23 55.59584 -55.20273 38734 ft 501 kts 64°
2026-04-20 11:23 55.62862 -55.09378 38737 ft 501 kts 64°
2026-04-20 11:24 55.66128 -54.98471 38739 ft 501 kts 64°
2026-04-20 11:24 55.69367 -54.87602 38757 ft 502 kts 64°
2026-04-20 11:25 55.72621 -54.76635 38763 ft 502 kts 64°
2026-04-20 11:25 55.75861 -54.65664 38753 ft 501 kts 64°
2026-04-20 11:26 55.79090 -54.54680 38767 ft 501 kts 64°
2026-04-20 11:26 55.82302 -54.43699 38772 ft 500 kts 65°
2026-04-20 11:27 55.85504 -54.32703 38785 ft 500 kts 65°
2026-04-20 11:27 55.88700 -54.21675 38783 ft 501 kts 65°
2026-04-20 11:28 55.91884 -54.10635 38784 ft 501 kts 65°
2026-04-20 11:28 55.95040 -53.99642 38788 ft 501 kts 65°
2026-04-20 11:29 55.98209 -53.88550 38805 ft 501 kts 65°
2026-04-20 11:29 56.01366 -53.77448 38813 ft 502 kts 65°
2026-04-20 11:30 56.04523 -53.66290 38811 ft 503 kts 65°
2026-04-20 11:30 56.07670 -53.55115 38818 ft 503 kts 65°
2026-04-20 11:31 56.10812 -53.43904 38819 ft 503 kts 65°
2026-04-20 11:31 56.13941 -53.32686 38826 ft 503 kts 65°
2026-04-20 11:32 56.17058 -53.21454 38835 ft 503 kts 65°
2026-04-20 11:32 56.20146 -53.10274 38832 ft 503 kts 65°
2026-04-20 11:33 56.23245 -52.98999 38828 ft 503 kts 66°
2026-04-20 11:33 56.26337 -52.87691 38835 ft 503 kts 65°
2026-04-20 11:34 56.29412 -52.76392 38839 ft 503 kts 66°
2026-04-20 11:34 56.32460 -52.65135 38846 ft 503 kts 66°
2026-04-20 11:35 56.35521 -52.53776 38844 ft 503 kts 66°
2026-04-20 11:35 56.38569 -52.42405 38862 ft 504 kts 66°
2026-04-20 11:36 56.41610 -52.31004 38858 ft 504 kts 66°
2026-04-20 11:36 56.44649 -52.19556 38872 ft 504 kts 66°
2026-04-20 11:37 56.47676 -52.08092 38880 ft 505 kts 66°
2026-04-20 11:37 56.52196 -51.90867 38884 ft 505 kts 66°
2026-04-20 11:38 56.55181 -51.79417 38890 ft 505 kts 66°
2026-04-20 11:38 56.58176 -51.67870 38906 ft 506 kts 66°
2026-04-20 11:39 56.61164 -51.56291 38918 ft 506 kts 66°
2026-04-20 11:39 56.64142 -51.44690 38903 ft 506 kts 66°
2026-04-20 11:40 56.67100 -51.33107 38933 ft 506 kts 66°
2026-04-20 11:40 56.70052 -51.21488 38933 ft 506 kts 66°
2026-04-20 11:41 56.72995 -51.09844 38943 ft 506 kts 66°
2026-04-20 11:41 56.75907 -50.98260 38940 ft 506 kts 66°
2026-04-20 11:42 56.78832 -50.86564 38950 ft 506 kts 66°
2026-04-20 11:42 56.81740 -50.74872 38952 ft 505 kts 66°
2026-04-20 11:43 56.84632 -50.63180 38959 ft 505 kts 66°
2026-04-20 11:43 56.87518 -50.51470 38983 ft 504 kts 66°
2026-04-20 11:44 56.90388 -50.39745 38979 ft 504 kts 66°
2026-04-20 11:44 56.93221 -50.28101 39003 ft 504 kts 66°
2026-04-20 11:45 56.96065 -50.16356 38995 ft 504 kts 66°
2026-04-20 11:45 56.98905 -50.04575 39015 ft 505 kts 66°
2026-04-20 11:46 57.01211 -49.92368 39016 ft 505 kts 76°
2026-04-20 11:46 57.02947 -49.79830 39031 ft 507 kts 77°
2026-04-20 11:47 57.04655 -49.67269 39034 ft 508 kts 77°
2026-04-20 11:47 57.06381 -49.54746 39025 ft 508 kts 76°
2026-04-20 11:48 57.08126 -49.42151 39041 ft 508 kts 76°
2026-04-20 11:48 57.09863 -49.29545 39056 ft 508 kts 76°
2026-04-20 11:49 57.11584 -49.16938 39056 ft 508 kts 76°
2026-04-20 11:49 57.13280 -49.04393 39069 ft 508 kts 76°
2026-04-20 11:50 57.14973 -48.91767 39075 ft 508 kts 76°
2026-04-20 11:50 57.16654 -48.79141 39077 ft 507 kts 76°
2026-04-20 11:51 57.18320 -48.66495 39084 ft 507 kts 76°
2026-04-20 11:51 57.19973 -48.53841 39069 ft 507 kts 76°
2026-04-20 11:52 57.21602 -48.41281 39090 ft 505 kts 76°
2026-04-20 11:52 57.23222 -48.28677 39093 ft 504 kts 76°
2026-04-20 11:53 57.24825 -48.16092 39106 ft 503 kts 75°
2026-04-20 11:53 57.26414 -48.03518 39106 ft 502 kts 75°
2026-04-20 11:54 57.27986 -47.90951 39119 ft 501 kts 75°
2026-04-20 11:54 57.29542 -47.78396 39120 ft 501 kts 76°
2026-04-20 11:55 57.31089 -47.65806 39133 ft 501 kts 76°
2026-04-20 11:55 57.32613 -47.53296 39134 ft 501 kts 76°
2026-04-20 11:56 57.34133 -47.40699 39141 ft 501 kts 75°
2026-04-20 11:56 57.35645 -47.28073 39141 ft 501 kts 76°
2026-04-20 11:57 57.37144 -47.15449 39145 ft 501 kts 76°
2026-04-20 11:57 57.38627 -47.02817 39145 ft 501 kts 76°
2026-04-20 11:58 57.40097 -46.90175 39147 ft 501 kts 76°
2026-04-20 11:58 57.41544 -46.77611 39156 ft 501 kts 75°
2026-04-20 11:59 57.43002 -46.64876 39154 ft 501 kts 76°
2026-04-20 11:59 57.44426 -46.52285 39161 ft 501 kts 76°
2026-04-20 12:00 57.45845 -46.39607 39155 ft 501 kts 76°
2026-04-20 12:00 57.47249 -46.26933 39166 ft 500 kts 75°
2026-04-20 12:01 57.48640 -46.14279 39177 ft 498 kts 75°
2026-04-20 12:01 57.50002 -46.01747 39175 ft 496 kts 75°
2026-04-20 12:02 57.51356 -45.89166 39177 ft 495 kts 75°
2026-04-20 12:02 57.52696 -45.76593 39185 ft 494 kts 75°
2026-04-20 12:03 57.54021 -45.64035 39186 ft 494 kts 75°
2026-04-20 12:03 57.55335 -45.51462 39186 ft 494 kts 76°
2026-04-20 12:04 57.56636 -45.38880 39196 ft 495 kts 75°
2026-04-20 12:04 57.57919 -45.26345 39192 ft 495 kts 75°
2026-04-20 12:05 57.59195 -45.13744 39195 ft 494 kts 75°
2026-04-20 12:05 57.60458 -45.01135 39198 ft 494 kts 75°
2026-04-20 12:06 57.61498 -44.90656 39202 ft 494 kts 75°
2026-04-20 12:06 57.62737 -44.78040 39217 ft 494 kts 75°
2026-04-20 12:07 57.63962 -44.65437 39202 ft 493 kts 75°
2026-04-20 12:07 57.65174 -44.52833 39200 ft 493 kts 75°
2026-04-20 12:08 57.66373 -44.40218 39202 ft 493 kts 75°
2026-04-20 12:08 57.67559 -44.27602 39204 ft 493 kts 75°
2026-04-20 12:09 57.68731 -44.14988 39204 ft 491 kts 75°
2026-04-20 12:09 57.69882 -44.02507 39213 ft 488 kts 75°
2026-04-20 12:10 57.71013 -43.90037 39195 ft 484 kts 75°
2026-04-20 12:10 57.72124 -43.77656 39189 ft 481 kts 75°
2026-04-20 12:11 57.73219 -43.65327 39194 ft 481 kts 75°
2026-04-20 12:11 57.74305 -43.52956 39198 ft 481 kts 75°
2026-04-20 12:12 57.75380 -43.40566 39197 ft 482 kts 75°
2026-04-20 12:12 57.76436 -43.28253 39191 ft 480 kts 76°
2026-04-20 12:13 57.77479 -43.15944 39175 ft 477 kts 76°
2026-04-20 12:13 57.78502 -43.03720 39182 ft 473 kts 76°
2026-04-20 12:14 57.79506 -42.91570 39180 ft 471 kts 76°
2026-04-20 12:14 57.80496 -42.79445 39174 ft 470 kts 76°
2026-04-20 12:15 57.81476 -42.67308 39206 ft 470 kts 75°
2026-04-20 12:15 57.82443 -42.55198 39182 ft 473 kts 75°
2026-04-20 12:16 57.83405 -42.42967 39170 ft 474 kts 76°
2026-04-20 12:16 57.84358 -42.30697 39166 ft 475 kts 76°
2026-04-20 12:17 57.85300 -42.18413 39167 ft 476 kts 76°
2026-04-20 12:17 57.86232 -42.06094 39163 ft 477 kts 76°
2026-04-20 12:18 57.87147 -41.93810 39195 ft 477 kts 75°
2026-04-20 12:18 57.88061 -41.81435 39159 ft 478 kts 75°
2026-04-20 12:19 57.88967 -41.69025 39158 ft 478 kts 75°
2026-04-20 12:19 57.89850 -41.56649 39156 ft 478 kts 75°
2026-04-20 12:20 57.90722 -41.44273 39155 ft 477 kts 75°
2026-04-20 12:20 57.91583 -41.31898 39156 ft 477 kts 76°
2026-04-20 12:21 57.92429 -41.19582 39171 ft 479 kts 75°
2026-04-20 12:21 57.93275 -41.07094 39153 ft 481 kts 75°
2026-04-20 12:22 57.94108 -40.94591 39148 ft 482 kts 75°
2026-04-20 12:22 57.94931 -40.82041 39146 ft 484 kts 76°
2026-04-20 12:23 57.95739 -40.69517 39147 ft 485 kts 76°
2026-04-20 12:23 57.96541 -40.56895 39139 ft 485 kts 76°
2026-04-20 12:24 57.97331 -40.44261 39139 ft 485 kts 76°
2026-04-20 12:24 57.98109 -40.31631 39139 ft 485 kts 76°
2026-04-20 12:25 57.98873 -40.19002 39131 ft 485 kts 76°
2026-04-20 12:25 57.99627 -40.06364 39130 ft 485 kts 76°
2026-04-20 12:26 58.00323 -39.93696 39131 ft 486 kts 78°
2026-04-20 12:26 58.00802 -39.80982 39171 ft 487 kts 79°
2026-04-20 12:27 58.01233 -39.68215 39132 ft 494 kts 79°
2026-04-20 12:27 58.01684 -39.55194 39129 ft 499 kts 79°
2026-04-20 12:28 58.02141 -39.42095 39134 ft 502 kts 79°
2026-04-20 12:28 58.02590 -39.28962 39117 ft 502 kts 79°
2026-04-20 12:29 58.03026 -39.15801 39114 ft 501 kts 79°
2026-04-20 12:29 58.03446 -39.02710 39143 ft 498 kts 80°
2026-04-20 12:30 58.03850 -38.89690 39111 ft 495 kts 80°
2026-04-20 12:30 58.04238 -38.76741 39112 ft 492 kts 80°
2026-04-20 12:31 58.04614 -38.63846 39115 ft 491 kts 80°
2026-04-20 12:31 58.04973 -38.51080 39111 ft 490 kts 80°
2026-04-20 12:32 58.05322 -38.38212 39111 ft 490 kts 81°
2026-04-20 12:32 58.05660 -38.25332 39121 ft 490 kts 82°
2026-04-20 12:33 58.05974 -38.12560 39116 ft 489 kts 82°
2026-04-20 12:33 58.06291 -37.99722 39109 ft 489 kts 82°
2026-04-20 12:34 58.06588 -37.86904 39110 ft 488 kts 82°
2026-04-20 12:34 58.06866 -37.74073 39109 ft 488 kts 82°
2026-04-20 12:35 58.07133 -37.61240 39123 ft 489 kts 82°
2026-04-20 12:35 58.07387 -37.48410 39112 ft 488 kts 83°
2026-04-20 12:36 58.07630 -37.35603 39115 ft 487 kts 83°
2026-04-20 12:36 58.07863 -37.22914 39105 ft 486 kts 83°
2026-04-20 12:37 58.08078 -37.10147 39114 ft 486 kts 84°
2026-04-20 12:37 58.08280 -36.97394 39114 ft 485 kts 84°
2026-04-20 12:38 58.08471 -36.84625 39117 ft 486 kts 84°
2026-04-20 12:38 58.08649 -36.71849 39123 ft 486 kts 84°
2026-04-20 12:39 58.08892 -36.52750 39125 ft 486 kts 85°
2026-04-20 12:40 58.09039 -36.39954 39122 ft 487 kts 85°
2026-04-20 12:40 58.09172 -36.27167 39119 ft 487 kts 85°
2026-04-20 12:41 58.09293 -36.14351 39119 ft 487 kts 85°
2026-04-20 12:41 58.09402 -36.01559 39133 ft 487 kts 85°
2026-04-20 12:42 58.09497 -35.88835 39126 ft 487 kts 86°
2026-04-20 12:42 58.09579 -35.76030 39123 ft 487 kts 86°
2026-04-20 12:43 58.09649 -35.63217 39126 ft 486 kts 86°
2026-04-20 12:43 58.09706 -35.50418 39142 ft 486 kts 86°
2026-04-20 12:44 58.09750 -35.37700 39129 ft 487 kts 86°
2026-04-20 12:44 58.09780 -35.24905 39150 ft 486 kts 87°
2026-04-20 12:45 58.09801 -35.12117 39140 ft 485 kts 87°
2026-04-20 12:45 58.09807 -34.99365 39136 ft 484 kts 87°
2026-04-20 12:46 58.09799 -34.86717 39147 ft 484 kts 87°
2026-04-20 12:46 58.09779 -34.73992 39149 ft 484 kts 88°
2026-04-20 12:47 58.09747 -34.61263 39150 ft 484 kts 87°
2026-04-20 12:47 58.09703 -34.48535 39142 ft 483 kts 88°
2026-04-20 12:48 58.09644 -34.35846 39153 ft 482 kts 88°
2026-04-20 12:48 58.09578 -34.23206 39141 ft 480 kts 88°
2026-04-20 12:49 58.09496 -34.10662 39157 ft 480 kts 88°
2026-04-20 12:49 58.09401 -33.98044 39149 ft 480 kts 88°
2026-04-20 12:50 58.09295 -33.85432 39152 ft 480 kts 88°
2026-04-20 12:50 58.09178 -33.72828 39152 ft 478 kts 89°
2026-04-20 12:51 58.09046 -33.60292 39150 ft 476 kts 89°
2026-04-20 12:51 58.08901 -33.47876 39157 ft 475 kts 90°
2026-04-20 12:52 58.08744 -33.35392 39166 ft 475 kts 90°
2026-04-20 12:52 58.08582 -33.22900 39164 ft 475 kts 90°
2026-04-20 12:53 58.08403 -33.10415 39165 ft 476 kts 90°
2026-04-20 12:53 58.08208 -32.97881 39159 ft 476 kts 90°
2026-04-20 12:54 58.08005 -32.85454 39157 ft 476 kts 90°
2026-04-20 12:54 58.07786 -32.72937 39162 ft 476 kts 90°
2026-04-20 12:55 58.07598 -32.62544 39156 ft 476 kts 90°
2026-04-20 12:55 58.07359 -32.50049 39154 ft 476 kts 91°
2026-04-20 12:56 58.07111 -32.37548 39160 ft 476 kts 90°
2026-04-20 12:56 58.06852 -32.25093 39167 ft 473 kts 91°
2026-04-20 12:57 58.06575 -32.12691 39165 ft 471 kts 91°
2026-04-20 12:57 58.06288 -32.00339 39162 ft 470 kts 92°
2026-04-20 12:58 58.05989 -31.88008 39162 ft 471 kts 92°
2026-04-20 12:58 58.05685 -31.75633 39160 ft 472 kts 91°
2026-04-20 12:59 58.05368 -31.63250 39159 ft 472 kts 92°
2026-04-20 12:59 58.05030 -31.50869 39160 ft 471 kts 92°
2026-04-20 13:00 58.04688 -31.38531 39155 ft 470 kts 92°
2026-04-20 13:00 58.04335 -31.26230 39157 ft 469 kts 93°
2026-04-20 13:01 58.03967 -31.13911 39169 ft 470 kts 93°
2026-04-20 13:01 58.03585 -31.01588 39159 ft 471 kts 93°
2026-04-20 13:02 58.03198 -30.89337 39149 ft 471 kts 93°
2026-04-20 13:02 58.02793 -30.76988 39146 ft 471 kts 94°
2026-04-20 13:03 58.02378 -30.64651 39151 ft 471 kts 94°
2026-04-20 13:03 58.01945 -30.52278 39152 ft 472 kts 94°
2026-04-20 13:04 58.01507 -30.39916 39158 ft 472 kts 94°
2026-04-20 13:04 58.01052 -30.27562 39148 ft 472 kts 95°
2026-04-20 13:05 58.00593 -30.15307 39150 ft 471 kts 95°
2026-04-20 13:05 58.00119 -30.02991 39147 ft 466 kts 95°
2026-04-20 13:06 57.99547 -29.90875 39159 ft 463 kts 97°
2026-04-20 13:06 57.98799 -29.78815 39157 ft 463 kts 98°
2026-04-20 13:07 57.98029 -29.66769 39170 ft 463 kts 98°
2026-04-20 13:07 57.97270 -29.54781 39169 ft 464 kts 98°
2026-04-20 13:08 57.96514 -29.42702 39162 ft 464 kts 97°
2026-04-20 13:08 57.95752 -29.30630 39170 ft 463 kts 98°
2026-04-20 13:09 57.94977 -29.18672 39176 ft 456 kts 98°
2026-04-20 13:09 57.94212 -29.06901 39171 ft 452 kts 98°
2026-04-20 13:10 57.93430 -28.95191 39187 ft 456 kts 98°
2026-04-20 13:10 57.92623 -28.83300 39189 ft 459 kts 98°
2026-04-20 13:11 57.91809 -28.71357 39178 ft 458 kts 98°
2026-04-20 13:11 57.90994 -28.59571 39184 ft 451 kts 98°
2026-04-20 13:12 57.90170 -28.47845 39183 ft 453 kts 99°
2026-04-20 13:12 57.89332 -28.36078 39196 ft 455 kts 98°
2026-04-20 13:13 57.88480 -28.24289 39193 ft 455 kts 99°
2026-04-20 13:13 57.87614 -28.12494 39215 ft 454 kts 99°
2026-04-20 13:14 57.86744 -28.00740 39208 ft 454 kts 99°
2026-04-20 13:14 57.85869 -27.89078 39195 ft 453 kts 99°
2026-04-20 13:15 57.84979 -27.77354 39205 ft 452 kts 99°
2026-04-20 13:15 57.84078 -27.65667 39213 ft 452 kts 99°
2026-04-20 13:16 57.83167 -27.53973 39209 ft 453 kts 99°
2026-04-20 13:16 57.82242 -27.42274 39227 ft 453 kts 99°
2026-04-20 13:17 57.81313 -27.30624 39221 ft 454 kts 100°
2026-04-20 13:17 57.80372 -27.18929 39237 ft 453 kts 100°
2026-04-20 13:18 57.79417 -27.07259 39221 ft 452 kts 100°
2026-04-20 13:18 57.78450 -26.95610 39219 ft 451 kts 100°
2026-04-20 13:19 57.77473 -26.83995 39238 ft 451 kts 100°
2026-04-20 13:19 57.76489 -26.72368 39240 ft 452 kts 101°
2026-04-20 13:20 57.75496 -26.60780 39247 ft 453 kts 100°
2026-04-20 13:20 57.74490 -26.49139 39243 ft 453 kts 100°
2026-04-20 13:21 57.73472 -26.37508 39239 ft 452 kts 101°
2026-04-20 13:21 57.72443 -26.25887 39248 ft 452 kts 101°
2026-04-20 13:22 57.71402 -26.14268 39250 ft 452 kts 101°
2026-04-20 13:22 57.70353 -26.02664 39262 ft 452 kts 101°
2026-04-20 13:23 57.69293 -25.91069 39249 ft 452 kts 101°
2026-04-20 13:23 57.68232 -25.79555 39257 ft 452 kts 101°
2026-04-20 13:24 57.67148 -25.67980 39276 ft 452 kts 101°
2026-04-20 13:24 57.66058 -25.56409 39261 ft 453 kts 101°
2026-04-20 13:25 57.64961 -25.44848 39258 ft 452 kts 102°
2026-04-20 13:25 57.63846 -25.33294 39274 ft 452 kts 102°
2026-04-20 13:26 57.62718 -25.21745 39265 ft 452 kts 101°
2026-04-20 13:26 57.61587 -25.10207 39269 ft 451 kts 101°
2026-04-20 13:27 57.60443 -24.98697 39268 ft 451 kts 102°
2026-04-20 13:27 57.59296 -24.87216 39264 ft 451 kts 102°
2026-04-20 13:28 57.58141 -24.75802 39274 ft 451 kts 102°
2026-04-20 13:28 57.56961 -24.64280 39275 ft 452 kts 102°
2026-04-20 13:29 57.55777 -24.52773 39280 ft 452 kts 102°
2026-04-20 13:29 57.54578 -24.41261 39281 ft 452 kts 102°
2026-04-20 13:30 57.53374 -24.29789 39279 ft 452 kts 102°
2026-04-20 13:30 57.52163 -24.18347 39293 ft 450 kts 102°
2026-04-20 13:31 57.50939 -24.06908 39277 ft 450 kts 102°
2026-04-20 13:31 57.49707 -23.95499 39282 ft 450 kts 102°
2026-04-20 13:32 57.48462 -23.84089 39296 ft 450 kts 103°
2026-04-20 13:32 57.47215 -23.72755 39290 ft 451 kts 103°
2026-04-20 13:33 57.45956 -23.61353 39294 ft 451 kts 103°
2026-04-20 13:33 57.44679 -23.49942 39296 ft 451 kts 103°
2026-04-20 13:34 57.43391 -23.38543 39290 ft 451 kts 103°
2026-04-20 13:34 57.42092 -23.27147 39301 ft 450 kts 103°
2026-04-20 13:35 57.40785 -23.15773 39299 ft 450 kts 103°
2026-04-20 13:35 57.39471 -23.04416 39313 ft 450 kts 103°
2026-04-20 13:36 57.38144 -22.93051 39308 ft 451 kts 103°
2026-04-20 13:36 57.36806 -22.81681 39300 ft 452 kts 103°
2026-04-20 13:37 57.35457 -22.70327 39309 ft 450 kts 103°
2026-04-20 13:37 57.34110 -22.59086 39298 ft 450 kts 104°
2026-04-20 13:38 57.32746 -22.47766 39312 ft 450 kts 103°
2026-04-20 13:38 57.31365 -22.36414 39326 ft 452 kts 104°
2026-04-20 13:39 57.29971 -22.25074 39314 ft 453 kts 103°
2026-04-20 13:39 57.28577 -22.13802 39319 ft 451 kts 104°
2026-04-20 13:40 57.27166 -22.02505 39321 ft 451 kts 104°
2026-04-20 13:40 57.25749 -21.91224 39316 ft 450 kts 104°
2026-04-20 13:41 57.24565 -21.81846 39323 ft 451 kts 104°
2026-04-20 13:41 57.23124 -21.70559 39321 ft 452 kts 104°
2026-04-20 13:42 57.21673 -21.59254 39335 ft 452 kts 104°
2026-04-20 13:42 57.20213 -21.47992 39560 ft 451 kts 105°
2026-04-20 13:42 57.19482 -21.42386 39857 ft 447 kts 104°
2026-04-20 13:43 57.18757 -21.36833 40191 ft 444 kts 104°
2026-04-20 13:43 57.18036 -21.31309 40434 ft 444 kts 104°
2026-04-20 13:43 57.17309 -21.25780 40669 ft 443 kts 104°
2026-04-20 13:43 57.16581 -21.20279 40908 ft 441 kts 104°
2026-04-20 13:44 57.15848 -21.14773 41101 ft 441 kts 104°
2026-04-20 13:44 57.15115 -21.09266 41187 ft 443 kts 104°
2026-04-20 13:44 57.13649 -20.98346 41319 ft 444 kts 104°
2026-04-20 13:45 57.12151 -20.87226 41341 ft 450 kts 104°
2026-04-20 13:45 57.10624 -20.75992 41353 ft 454 kts 104°
2026-04-20 13:46 57.09075 -20.64671 41348 ft 457 kts 104°
2026-04-20 13:46 57.07520 -20.53401 41338 ft 454 kts 104°
2026-04-20 13:47 57.05959 -20.42177 41353 ft 452 kts 104°
2026-04-20 13:47 57.04393 -20.30965 41352 ft 453 kts 104°
2026-04-20 13:48 57.02818 -20.19798 41349 ft 454 kts 104°
2026-04-20 13:48 57.01223 -20.08557 41357 ft 456 kts 104°
2026-04-20 13:49 56.99565 -19.97332 41353 ft 456 kts 107°
2026-04-20 13:49 56.97629 -19.86229 41365 ft 456 kts 108°
2026-04-20 13:50 56.95645 -19.75184 41351 ft 456 kts 108°
2026-04-20 13:50 56.93673 -19.64216 41368 ft 455 kts 107°
2026-04-20 13:51 56.91693 -19.53196 41362 ft 456 kts 107°
2026-04-20 13:51 56.89706 -19.42157 41374 ft 457 kts 107°
2026-04-20 13:52 56.87702 -19.31093 41364 ft 458 kts 107°
2026-04-20 13:52 56.85692 -19.20044 41356 ft 458 kts 107°
2026-04-20 13:53 56.83666 -19.09013 41352 ft 458 kts 107°
2026-04-20 13:53 56.81634 -18.98005 41362 ft 457 kts 107°
2026-04-20 13:54 56.79593 -18.87004 41360 ft 458 kts 107°
2026-04-20 13:54 56.77536 -18.75988 41384 ft 459 kts 107°
2026-04-20 13:55 56.75467 -18.64963 41375 ft 460 kts 107°
2026-04-20 13:55 56.73397 -18.54012 41373 ft 460 kts 108°
2026-04-20 13:56 56.71307 -18.42983 41374 ft 461 kts 107°
2026-04-20 13:56 56.69202 -18.31969 41368 ft 460 kts 108°
2026-04-20 13:57 56.67089 -18.20960 41373 ft 459 kts 108°
2026-04-20 13:57 56.64968 -18.10007 41373 ft 459 kts 108°
2026-04-20 13:58 56.62853 -17.99122 41381 ft 459 kts 108°
2026-04-20 13:58 56.60714 -17.88156 41369 ft 460 kts 108°
2026-04-20 13:59 56.58571 -17.77214 41375 ft 461 kts 108°
2026-04-20 13:59 56.56400 -17.66260 41364 ft 461 kts 108°
2026-04-20 14:00 56.54228 -17.55307 41374 ft 461 kts 108°
2026-04-20 14:00 56.52052 -17.44428 41373 ft 462 kts 108°
2026-04-20 14:01 56.49856 -17.33499 41383 ft 462 kts 109°
2026-04-20 14:01 56.47649 -17.22563 41367 ft 462 kts 108°
2026-04-20 14:02 56.45432 -17.11635 41377 ft 462 kts 108°
2026-04-20 14:02 56.43200 -17.00754 41375 ft 461 kts 107°
2026-04-20 14:03 56.40970 -16.89878 41377 ft 461 kts 108°
2026-04-20 14:03 56.38746 -16.79089 41372 ft 462 kts 108°
2026-04-20 14:04 56.36480 -16.68188 41378 ft 463 kts 108°
2026-04-20 14:04 56.34212 -16.57321 41372 ft 464 kts 108°
2026-04-20 14:05 56.31923 -16.46414 41381 ft 465 kts 108°
2026-04-20 14:05 56.29631 -16.35533 41381 ft 465 kts 108°
2026-04-20 14:06 56.27341 -16.24732 41374 ft 465 kts 108°
2026-04-20 14:06 56.25021 -16.13855 41374 ft 466 kts 109°
2026-04-20 14:07 56.22691 -16.02981 41374 ft 466 kts 108°
2026-04-20 14:07 56.20342 -15.92106 41381 ft 467 kts 109°
2026-04-20 14:08 56.17986 -15.81217 41376 ft 468 kts 109°
2026-04-20 14:08 56.15633 -15.70406 41375 ft 468 kts 109°
2026-04-20 14:09 56.13254 -15.59542 41369 ft 468 kts 109°
2026-04-20 14:09 56.10862 -15.48676 41375 ft 469 kts 109°
2026-04-20 14:10 56.08457 -15.37804 41371 ft 470 kts 109°
2026-04-20 14:10 56.06039 -15.26931 41373 ft 470 kts 109°
2026-04-20 14:11 56.03611 -15.16054 41372 ft 471 kts 109°
2026-04-20 14:11 56.01264 -15.05133 41374 ft 469 kts 103°
2026-04-20 14:12 56.00052 -14.93725 41376 ft 465 kts 92°
2026-04-20 14:12 55.99955 -14.82206 41375 ft 464 kts 86°
2026-04-20 14:13 56.00045 -14.70726 41379 ft 465 kts 87°
2026-04-20 14:13 56.00089 -14.59127 41379 ft 467 kts 87°
2026-04-20 14:14 56.00096 -14.47521 41382 ft 468 kts 88°
2026-04-20 14:14 56.00087 -14.35892 41384 ft 468 kts 88°
2026-04-20 14:15 56.00070 -14.24237 41386 ft 469 kts 88°
2026-04-20 14:15 56.00045 -14.12544 41379 ft 470 kts 88°
2026-04-20 14:16 55.99552 -14.00950 41373 ft 474 kts 98°
2026-04-20 14:16 55.97724 -13.89599 41383 ft 478 kts 109°
2026-04-20 14:17 55.95176 -13.78619 41376 ft 479 kts 110°
2026-04-20 14:17 55.92581 -13.67650 41373 ft 480 kts 110°
2026-04-20 14:18 55.90007 -13.56671 41386 ft 480 kts 110°
2026-04-20 14:18 55.87438 -13.45662 41368 ft 481 kts 110°
2026-04-20 14:19 55.84868 -13.34675 41380 ft 481 kts 110°
2026-04-20 14:19 55.82298 -13.23745 41372 ft 481 kts 110°
2026-04-20 14:20 55.79700 -13.12763 41369 ft 481 kts 110°
2026-04-20 14:20 55.77090 -13.01786 41386 ft 481 kts 110°
2026-04-20 14:21 55.74473 -12.90837 41375 ft 482 kts 111°
2026-04-20 14:21 55.71858 -12.79951 41372 ft 482 kts 110°
2026-04-20 14:22 55.69215 -12.69002 41372 ft 483 kts 111°
2026-04-20 14:22 55.66564 -12.58075 41374 ft 483 kts 111°
2026-04-20 14:23 55.63901 -12.47158 41365 ft 483 kts 111°
2026-04-20 14:23 55.61229 -12.36252 41385 ft 483 kts 111°
2026-04-20 14:24 55.58540 -12.25335 41373 ft 484 kts 111°
2026-04-20 14:24 55.55837 -12.14415 41370 ft 485 kts 111°
2026-04-20 14:25 55.53124 -12.03508 41366 ft 485 kts 111°
2026-04-20 14:25 55.50416 -11.92675 41366 ft 485 kts 112°
2026-04-20 14:26 55.47675 -11.81765 41361 ft 486 kts 111°
2026-04-20 14:26 55.44929 -11.70889 41362 ft 486 kts 111°
2026-04-20 14:27 55.42175 -11.60030 41361 ft 486 kts 112°
2026-04-20 14:27 55.39410 -11.49185 41363 ft 486 kts 112°
2026-04-20 14:28 55.36652 -11.38418 41361 ft 486 kts 112°
2026-04-20 14:28 55.33865 -11.27594 41356 ft 486 kts 112°
2026-04-20 14:29 55.31546 -11.18624 41356 ft 485 kts 112°
2026-04-20 14:29 55.28746 -11.07841 41367 ft 486 kts 112°
2026-04-20 14:30 55.25932 -10.97057 41356 ft 487 kts 113°
2026-04-20 14:30 55.23101 -10.86247 41355 ft 487 kts 112°
2026-04-20 14:31 55.20258 -10.75459 41351 ft 488 kts 113°
2026-04-20 14:31 55.17398 -10.64661 41345 ft 489 kts 112°
2026-04-20 14:32 55.14552 -10.53959 41352 ft 489 kts 113°
2026-04-20 14:32 55.11671 -10.43178 41357 ft 489 kts 113°
2026-04-20 14:33 55.08779 -10.32406 41341 ft 490 kts 113°
2026-04-20 14:33 55.05876 -10.21639 41342 ft 491 kts 113°
2026-04-20 14:34 55.02959 -10.10874 41344 ft 491 kts 114°
2026-04-20 14:34 55.00032 -10.00117 41347 ft 492 kts 114°
2026-04-20 14:35 54.97155 -9.89312 41343 ft 492 kts 113°
2026-04-20 14:35 54.94327 -9.78469 41334 ft 492 kts 112°
2026-04-20 14:36 54.91485 -9.67649 41333 ft 492 kts 112°
2026-04-20 14:36 54.88621 -9.56854 41326 ft 492 kts 113°
2026-04-20 14:37 54.85743 -9.46074 41319 ft 492 kts 113°
2026-04-20 14:37 54.82859 -9.35301 41325 ft 493 kts 113°
2026-04-20 14:38 54.79979 -9.24584 41321 ft 494 kts 112°
2026-04-20 14:38 54.77060 -9.13801 41326 ft 495 kts 113°
2026-04-20 14:39 54.74130 -9.03034 41315 ft 494 kts 114°
2026-04-20 14:39 54.71187 -8.92265 41307 ft 494 kts 112°
2026-04-20 14:40 54.68241 -8.81523 41303 ft 494 kts 114°
2026-04-20 14:40 54.65282 -8.70800 41302 ft 494 kts 114°
2026-04-20 14:41 54.62318 -8.60101 41300 ft 494 kts 114°
2026-04-20 14:41 54.59341 -8.49404 41292 ft 494 kts 114°
2026-04-20 14:42 54.56374 -8.38791 41279 ft 494 kts 115°
2026-04-20 14:42 54.53381 -8.28133 41278 ft 494 kts 115°
2026-04-20 14:43 54.50381 -8.17500 41274 ft 494 kts 115°
2026-04-20 14:43 54.47370 -8.06876 41271 ft 494 kts 115°
2026-04-20 14:44 54.44347 -7.96254 41275 ft 495 kts 115°
2026-04-20 14:44 54.41308 -7.85629 41280 ft 495 kts 115°
2026-04-20 14:45 54.38280 -7.75088 41273 ft 496 kts 115°
2026-04-20 14:45 54.35221 -7.64490 41282 ft 496 kts 115°
2026-04-20 14:46 54.32148 -7.53884 41273 ft 496 kts 115°
2026-04-20 14:46 54.29070 -7.43306 41285 ft 496 kts 115°
2026-04-20 14:47 54.25645 -7.33048 41275 ft 497 kts 122°
2026-04-20 14:48 54.19960 -7.18270 41272 ft 498 kts 123°
2026-04-20 14:48 54.16145 -7.08364 41274 ft 499 kts 122°
2026-04-20 14:49 54.12345 -6.98453 41278 ft 500 kts 122°
2026-04-20 14:49 54.08534 -6.88527 41274 ft 500 kts 122°
2026-04-20 14:50 54.04713 -6.78617 41269 ft 500 kts 123°
2026-04-20 14:50 54.00879 -6.68713 41279 ft 501 kts 123°
2026-04-20 14:51 53.97055 -6.58883 41281 ft 501 kts 123°
2026-04-20 14:51 53.93205 -6.49020 41288 ft 501 kts 123°
2026-04-20 14:52 53.89343 -6.39168 41288 ft 502 kts 123°
2026-04-20 14:52 53.85469 -6.29325 41289 ft 502 kts 123°
2026-04-20 14:53 53.81584 -6.19491 41292 ft 502 kts 123°
2026-04-20 14:53 53.77689 -6.09670 41294 ft 503 kts 123°
2026-04-20 14:54 53.73778 -5.99846 41296 ft 503 kts 123°
2026-04-20 14:54 53.69862 -5.90048 41294 ft 503 kts 123°
2026-04-20 14:55 53.65962 -5.80327 41294 ft 504 kts 123°
2026-04-20 14:55 53.62025 -5.70551 41293 ft 504 kts 123°
2026-04-20 14:56 53.58084 -5.60797 41288 ft 504 kts 123°
2026-04-20 14:56 53.54706 -5.50511 41293 ft 502 kts 108°
2026-04-20 14:57 53.53275 -5.39108 41293 ft 498 kts 90°
2026-04-20 14:57 53.53140 -5.27487 41299 ft 498 kts 89°
2026-04-20 14:58 53.52915 -5.15839 41303 ft 499 kts 91°
2026-04-20 14:58 53.52543 -5.04172 41294 ft 500 kts 91°
2026-04-20 14:59 53.52141 -4.92524 41293 ft 500 kts 91°
2026-04-20 14:59 53.51749 -4.80863 41294 ft 499 kts 91°
2026-04-20 15:00 53.51353 -4.69278 41294 ft 499 kts 91°
2026-04-20 15:00 53.50945 -4.57630 41303 ft 499 kts 92°
2026-04-20 15:01 53.50525 -4.45983 41293 ft 499 kts 92°
2026-04-20 15:01 53.50096 -4.34368 41293 ft 498 kts 92°
2026-04-20 15:02 53.49654 -4.22744 41291 ft 498 kts 92°
2026-04-20 15:02 53.49204 -4.11155 41293 ft 498 kts 92°
2026-04-20 15:03 53.48660 -3.99554 41287 ft 498 kts 97°
2026-04-20 15:03 53.47092 -3.88232 41275 ft 500 kts 108°
2026-04-20 15:04 53.44739 -3.77245 41282 ft 500 kts 109°
2026-04-20 15:04 53.42439 -3.66320 41280 ft 500 kts 108°
2026-04-20 15:05 53.39876 -3.55473 41286 ft 501 kts 115°
2026-04-20 15:05 53.36791 -3.45015 41274 ft 501 kts 115°
2026-04-20 15:06 53.33745 -3.34509 41275 ft 500 kts 115°
2026-04-20 15:06 53.30714 -3.24028 41270 ft 500 kts 115°
2026-04-20 15:07 53.27689 -3.13629 41270 ft 500 kts 115°
2026-04-20 15:07 53.24638 -3.03191 41277 ft 500 kts 115°
2026-04-20 15:08 53.21579 -2.92766 41261 ft 500 kts 115°
2026-04-20 15:08 53.18511 -2.82359 41264 ft 500 kts 115°
2026-04-20 15:09 53.15433 -2.71958 41280 ft 500 kts 115°
2026-04-20 15:09 53.12345 -2.61572 41282 ft 500 kts 115°
2026-04-20 15:10 53.09246 -2.51191 41295 ft 500 kts 116°
2026-04-20 15:10 53.06140 -2.40825 41284 ft 501 kts 116°
2026-04-20 15:11 53.02718 -2.30797 41280 ft 499 kts 130°
2026-04-20 15:11 53.00153 -2.26946 41272 ft 497 kts 148°
2026-04-20 15:11 52.97244 -2.24022 41294 ft 496 kts 149°
2026-04-20 15:12 52.91305 -2.18077 41286 ft 500 kts 149°
2026-04-20 15:12 52.85376 -2.11974 41290 ft 503 kts 148°
2026-04-20 15:13 52.79446 -2.05797 41288 ft 505 kts 148°
2026-04-20 15:13 52.73478 -1.99587 41286 ft 507 kts 148°
2026-04-20 15:14 52.67522 -1.93419 41213 ft 501 kts 148°
2026-04-20 15:14 52.64631 -1.90434 40501 ft 483 kts 148°
2026-04-20 15:14 52.61779 -1.87495 38975 ft 487 kts 149°
2026-04-20 15:14 52.58878 -1.84512 36929 ft 495 kts 149°
2026-04-20 15:15 52.56936 -1.82515 35588 ft 500 kts 150°
2026-04-20 15:15 52.52967 -1.78448 32592 ft 506 kts 151°
2026-04-20 15:15 52.49983 -1.75391 30163 ft 523 kts 153°
2026-04-20 15:15 52.46856 -1.72206 28976 ft 533 kts 152°
2026-04-20 15:16 52.43708 -1.68993 28471 ft 531 kts 152°
2026-04-20 15:16 52.40593 -1.65811 28124 ft 525 kts 152°
2026-04-20 15:16 52.37490 -1.62650 27223 ft 523 kts 152°
2026-04-20 15:16 52.35411 -1.60537 26662 ft 519 kts 152°
2026-04-20 15:17 52.32355 -1.57437 25859 ft 513 kts 152°
2026-04-20 15:17 52.29386 -1.54431 25092 ft 507 kts 152°
2026-04-20 15:17 52.26400 -1.51412 24297 ft 501 kts 152°
2026-04-20 15:17 52.23454 -1.48440 23489 ft 496 kts 152°
2026-04-20 15:18 52.20558 -1.45420 22653 ft 490 kts 147°
2026-04-20 15:18 52.17895 -1.42006 21872 ft 485 kts 141°
2026-04-20 15:18 52.15394 -1.38384 21186 ft 476 kts 139°
2026-04-20 15:18 52.12970 -1.34773 20535 ft 468 kts 139°
2026-04-20 15:19 52.10571 -1.31255 19828 ft 461 kts 139°
2026-04-20 15:19 52.08174 -1.27832 19226 ft 453 kts 140°
2026-04-20 15:19 52.05814 -1.24529 18715 ft 441 kts 140°
2026-04-20 15:19 52.03504 -1.21327 18166 ft 431 kts 140°
2026-04-20 15:20 52.01235 -1.18195 17569 ft 424 kts 140°
2026-04-20 15:20 51.99071 -1.15206 16628 ft 397 kts 140°
2026-04-20 15:20 51.96946 -1.12276 15703 ft 398 kts 140°
2026-04-20 15:20 51.94969 -1.09549 15393 ft 358 kts 140°
2026-04-20 15:21 51.93144 -1.07033 15180 ft 324 kts 140°
2026-04-20 15:21 51.91519 -1.04795 14872 ft 299 kts 140°
2026-04-20 15:21 51.89977 -1.02674 14399 ft 284 kts 140°
2026-04-20 15:21 51.88492 -1.00634 13773 ft 277 kts 140°
2026-04-20 15:22 51.87013 -0.98605 12970 ft 276 kts 140°
2026-04-20 15:22 51.85564 -0.96578 12488 ft 277 kts 134°
2026-04-20 15:22 51.84490 -0.94057 12071 ft 273 kts 114°
2026-04-20 15:22 51.83692 -0.91289 11789 ft 270 kts 113°
2026-04-20 15:23 51.82889 -0.88554 11546 ft 267 kts 114°
2026-04-20 15:23 51.82080 -0.85844 11205 ft 268 kts 115°
2026-04-20 15:23 51.81273 -0.83157 10999 ft 262 kts 115°
2026-04-20 15:23 51.80475 -0.80530 10705 ft 260 kts 115°
2026-04-20 15:24 51.79681 -0.77920 10478 ft 257 kts 115°
2026-04-20 15:24 51.78889 -0.75328 10168 ft 257 kts 115°
2026-04-20 15:24 51.78102 -0.72764 9926 ft 253 kts 115°
2026-04-20 15:24 51.77320 -0.70218 9622 ft 252 kts 115°
2026-04-20 15:25 51.76546 -0.67698 9355 ft 249 kts 115°
2026-04-20 15:25 51.75776 -0.65197 9067 ft 248 kts 114°
2026-04-20 15:25 51.75009 -0.62716 8782 ft 246 kts 114°
2026-04-20 15:25 51.74249 -0.60261 8501 ft 244 kts 114°
2026-04-20 15:26 51.73503 -0.57844 8190 ft 244 kts 115°
2026-04-20 15:26 51.72493 -0.55693 7761 ft 245 kts 143°
2026-04-20 15:26 51.70884 -0.54826 7432 ft 246 kts 175°
2026-04-20 15:26 51.69182 -0.54764 7113 ft 245 kts 176°
2026-04-20 15:27 51.67474 -0.54674 6769 ft 247 kts 176°
2026-04-20 15:27 51.65748 -0.54581 6415 ft 249 kts 175°
2026-04-20 15:27 51.64009 -0.54498 6042 ft 249 kts 178°
2026-04-20 15:27 51.62324 -0.55105 5657 ft 253 kts 206°
2026-04-20 15:28 51.60984 -0.56929 5318 ft 255 kts 235°
2026-04-20 15:28 51.60287 -0.59509 5084 ft 250 kts 259°
2026-04-20 15:28 51.60078 -0.62250 4857 ft 244 kts 267°
2026-04-20 15:28 51.59941 -0.64955 4662 ft 241 kts 266°
2026-04-20 15:29 51.59788 -0.67622 4434 ft 237 kts 266°
2026-04-20 15:29 51.59628 -0.70256 4230 ft 237 kts 266°
2026-04-20 15:29 51.59467 -0.72887 4016 ft 235 kts 266°
2026-04-20 15:29 51.59305 -0.75491 3816 ft 232 kts 264°
2026-04-20 15:30 51.58763 -0.77883 3560 ft 230 kts 230°
2026-04-20 15:30 51.57477 -0.79346 3373 ft 229 kts 195°
2026-04-20 15:30 51.55922 -0.79692 3187 ft 224 kts 177°
2026-04-20 15:30 51.54386 -0.79619 3071 ft 220 kts 175°
2026-04-20 15:31 51.52855 -0.79507 3026 ft 221 kts 174°
2026-04-20 15:31 51.51332 -0.79400 3010 ft 221 kts 175°
2026-04-20 15:31 51.49793 -0.79292 3025 ft 223 kts 174°
2026-04-20 15:31 51.48256 -0.79059 2982 ft 217 kts 160°
2026-04-20 15:32 51.47076 -0.77781 2987 ft 198 kts 121°
2026-04-20 15:32 51.46667 -0.75798 2994 ft 184 kts 94°
2026-04-20 15:32 51.46528 -0.73752 3003 ft 187 kts 94°
2026-04-20 15:32 51.46428 -0.71691 2989 ft 185 kts 90°
2026-04-20 15:33 51.46404 -0.69605 2762 ft 184 kts 88°
2026-04-20 15:33 51.46410 -0.67580 2498 ft 182 kts 88°
2026-04-20 15:33 51.46417 -0.65539 2285 ft 185 kts 87°
2026-04-20 15:33 51.46425 -0.63491 2008 ft 177 kts 87°
2026-04-20 15:34 51.46431 -0.61602 1785 ft 163 kts 87°
2026-04-20 15:34 51.46437 -0.59842 1553 ft 151 kts 87°
2026-04-20 15:34 51.46446 -0.58218 1337 ft 140 kts 83°
2026-04-20 15:34 51.46682 -0.56810 1136 ft 128 kts 66°
2026-04-20 15:35 51.47054 -0.55525 1035 ft 122 kts 63°
2026-04-20 15:35 51.47382 -0.54325 829 ft 121 kts 69°
2026-04-20 15:35 51.47639 -0.53085 650 ft 119 kts 75°
2026-04-20 15:35 51.47750 -0.51763 512 ft 121 kts 86°
2026-04-20 15:36 51.47747 -0.50435 326 ft 119 kts 88°
2026-04-20 15:36 51.47751 -0.49088 173 ft 123 kts 87°
2026-04-20 15:36 51.47750 -0.47769 94 ft 108 kts 84°
2026-04-20 15:36 51.47758 -0.46760 96 ft 70 kts 90°
2026-04-20 15:37 51.47759 -0.46306 95 ft 14 kts 89°
2026-04-20 15:37 51.47743 -0.46201 93 ft 9 kts 126°
2026-04-20 15:37 51.47694 -0.46133 94 ft 9 kts 145°
2026-04-20 15:37 51.47638 -0.46077 95 ft 9 kts 161°
2026-04-20 15:38 51.47594 -0.46137 92 ft 10 kts 264°
2026-04-20 15:38 51.47593 -0.46298 94 ft 20 kts 269°
2026-04-20 15:38 51.47592 -0.46542 91 ft 22 kts 270°
2026-04-20 15:38 51.47592 -0.46791 91 ft 22 kts 270°
2026-04-20 15:39 51.47586 -0.47039 93 ft 22 kts 265°
2026-04-20 15:39 51.47581 -0.47287 94 ft 22 kts 269°
2026-04-20 15:39 51.47580 -0.47536 94 ft 22 kts 270°
2026-04-20 15:39 51.47580 -0.47784 94 ft 22 kts 270°
2026-04-20 15:40 51.47579 -0.48032 94 ft 22 kts 270°
2026-04-20 15:40 51.47578 -0.48234 94 ft 11 kts 269°
2026-04-20 15:40 51.47554 -0.48347 95 ft 12 kts 207°
2026-04-20 15:40 51.47473 -0.48348 90 ft 12 kts 180°
2026-04-20 15:41 51.47393 -0.48355 92 ft 12 kts 184°
2026-04-20 15:41 51.47312 -0.48357 94 ft 12 kts 180°
2026-04-20 15:41 51.47231 -0.48357 94 ft 12 kts 180°
2026-04-20 15:41 51.47196 -0.48354 94 ft 4 kts 167°
2026-04-20 15:42 51.47183 -0.48316 94 ft 4 kts 101°
2026-04-20 15:42 51.47181 -0.48270 93 ft 4 kts 91°
2026-04-20 15:42 51.47181 -0.48238 94 ft 1 kts 89°
2026-04-20 15:42 51.47181 -0.48233 95 ft 1 kts 89°
2026-04-20 15:43 51.47182 -0.48231 95 ft 0 kts 89°